<?xml version="1.0" encoding="UTF-8" standalone="no" ?>
<gpx xmlns="http://www.topografix.com/GPX/1/1" xmlns:xsi="http://www.w3.org/2001/XMLSchema-instance" xsi:schemaLocation="http://www.topografix.com/GPX/1/1 http://www.topografix.com/GPX/1/1/gpx.xsd" version="1.1" creator="VisuGPX - https://www.visugpx.com">
  <metadata>
    <name>Parcours VTT FFC Saillans</name>
  </metadata>
  <trk>
    <name><![CDATA[VTT N°7 rouge - Aubenasson Saint Sauveur - 25km - déniv 800m - VAE Vert]]></name>
    <extensions>
      <line xmlns="http://www.topografix.com/GPX/gpx_style/0/2">
        <color>f90025</color>
        <width>4</width>
      </line>
    </extensions>
    <trkseg>
      <trkpt lat="44.69709" lon="5.19975">
        <ele>325</ele>
        <time>2022-11-17T10:03:31Z</time>
      </trkpt>
      <trkpt lat="44.69687" lon="5.19981">
        <ele>322</ele>
        <time>2022-11-17T10:03:31Z</time>
      </trkpt>
      <trkpt lat="44.69681" lon="5.20013">
        <ele>322</ele>
        <time>2022-11-17T10:03:31Z</time>
      </trkpt>
      <trkpt lat="44.69679" lon="5.20145">
        <ele>318</ele>
        <time>2022-11-17T10:03:31Z</time>
      </trkpt>
      <trkpt lat="44.69696" lon="5.20286">
        <ele>316</ele>
        <time>2022-11-17T10:03:31Z</time>
      </trkpt>
      <trkpt lat="44.6964" lon="5.20374">
        <ele>305</ele>
        <time>2022-11-17T10:03:31Z</time>
      </trkpt>
      <trkpt lat="44.69626" lon="5.20399">
        <ele>326</ele>
        <time>2022-11-17T10:03:31Z</time>
      </trkpt>
      <trkpt lat="44.69603" lon="5.20415">
        <ele>326</ele>
        <time>2022-11-17T10:03:31Z</time>
      </trkpt>
      <trkpt lat="44.69582" lon="5.20426">
        <ele>324</ele>
        <time>2022-11-17T10:03:31Z</time>
      </trkpt>
      <trkpt lat="44.69403" lon="5.2052">
        <ele>322</ele>
        <time>2022-11-17T10:03:31Z</time>
      </trkpt>
      <trkpt lat="44.69306" lon="5.20525">
        <ele>323</ele>
        <time>2022-11-17T10:03:31Z</time>
      </trkpt>
      <trkpt lat="44.69307" lon="5.2049">
        <ele>323</ele>
        <time>2022-11-17T10:03:31Z</time>
      </trkpt>
      <trkpt lat="44.69336" lon="5.2043">
        <ele>324</ele>
        <time>2022-11-17T10:03:31Z</time>
      </trkpt>
      <trkpt lat="44.69473" lon="5.20103">
        <ele>324</ele>
        <time>2022-11-17T10:03:31Z</time>
      </trkpt>
      <trkpt lat="44.69496" lon="5.20092">
        <ele>325</ele>
        <time>2022-11-17T10:03:31Z</time>
      </trkpt>
      <trkpt lat="44.69509" lon="5.20061">
        <ele>327</ele>
        <time>2022-11-17T10:03:31Z</time>
      </trkpt>
      <trkpt lat="44.69505" lon="5.20028">
        <ele>328</ele>
        <time>2022-11-17T10:03:31Z</time>
      </trkpt>
      <trkpt lat="44.69477" lon="5.1997">
        <ele>329</ele>
        <time>2022-11-17T10:03:31Z</time>
      </trkpt>
      <trkpt lat="44.69473" lon="5.19932">
        <ele>327</ele>
        <time>2022-11-17T10:03:31Z</time>
      </trkpt>
      <trkpt lat="44.6946" lon="5.19901">
        <ele>327</ele>
        <time>2022-11-17T10:03:31Z</time>
      </trkpt>
      <trkpt lat="44.6937" lon="5.19853">
        <ele>331</ele>
        <time>2022-11-17T10:03:31Z</time>
      </trkpt>
      <trkpt lat="44.69347" lon="5.19848">
        <ele>333</ele>
        <time>2022-11-17T10:03:31Z</time>
      </trkpt>
      <trkpt lat="44.69324" lon="5.19847">
        <ele>335</ele>
        <time>2022-11-17T10:03:31Z</time>
      </trkpt>
      <trkpt lat="44.69278" lon="5.19844">
        <ele>338</ele>
        <time>2022-11-17T10:03:31Z</time>
      </trkpt>
      <trkpt lat="44.69252" lon="5.19842">
        <ele>340</ele>
        <time>2022-11-17T10:03:31Z</time>
      </trkpt>
      <trkpt lat="44.69227" lon="5.19841">
        <ele>342</ele>
        <time>2022-11-17T10:03:31Z</time>
      </trkpt>
      <trkpt lat="44.69031" lon="5.19825">
        <ele>349</ele>
        <time>2022-11-17T10:03:31Z</time>
      </trkpt>
      <trkpt lat="44.6901" lon="5.19812">
        <ele>350</ele>
        <time>2022-11-17T10:03:31Z</time>
      </trkpt>
      <trkpt lat="44.6894" lon="5.19809">
        <ele>352</ele>
        <time>2022-11-17T10:03:31Z</time>
      </trkpt>
      <trkpt lat="44.68821" lon="5.19774">
        <ele>357</ele>
        <time>2022-11-17T10:03:31Z</time>
      </trkpt>
      <trkpt lat="44.68796" lon="5.19767">
        <ele>359</ele>
        <time>2022-11-17T10:03:31Z</time>
      </trkpt>
      <trkpt lat="44.68773" lon="5.19756">
        <ele>362</ele>
        <time>2022-11-17T10:03:31Z</time>
      </trkpt>
      <trkpt lat="44.68751" lon="5.19746">
        <ele>364</ele>
        <time>2022-11-17T10:03:31Z</time>
      </trkpt>
      <trkpt lat="44.68705" lon="5.19727">
        <ele>367</ele>
        <time>2022-11-17T10:03:31Z</time>
      </trkpt>
      <trkpt lat="44.68606" lon="5.19702">
        <ele>369</ele>
        <time>2022-11-17T10:03:31Z</time>
      </trkpt>
      <trkpt lat="44.68297" lon="5.19612">
        <ele>377</ele>
        <time>2022-11-17T10:03:31Z</time>
      </trkpt>
      <trkpt lat="44.68178" lon="5.19577">
        <ele>381</ele>
        <time>2022-11-17T10:03:31Z</time>
      </trkpt>
      <trkpt lat="44.68044" lon="5.19501">
        <ele>385</ele>
        <time>2022-11-17T10:03:31Z</time>
      </trkpt>
      <trkpt lat="44.68" lon="5.19476">
        <ele>388</ele>
        <time>2022-11-17T10:03:31Z</time>
      </trkpt>
      <trkpt lat="44.6798" lon="5.1946">
        <ele>390</ele>
        <time>2022-11-17T10:03:31Z</time>
      </trkpt>
      <trkpt lat="44.67958" lon="5.19441">
        <ele>392</ele>
        <time>2022-11-17T10:03:31Z</time>
      </trkpt>
      <trkpt lat="44.67935" lon="5.19434">
        <ele>394</ele>
        <time>2022-11-17T10:03:31Z</time>
      </trkpt>
      <trkpt lat="44.67668" lon="5.19517">
        <ele>397</ele>
        <time>2022-11-17T10:03:31Z</time>
      </trkpt>
      <trkpt lat="44.67593" lon="5.19515">
        <ele>399</ele>
        <time>2022-11-17T10:03:31Z</time>
      </trkpt>
      <trkpt lat="44.67569" lon="5.19524">
        <ele>399</ele>
        <time>2022-11-17T10:03:31Z</time>
      </trkpt>
      <trkpt lat="44.67546" lon="5.19583">
        <ele>402</ele>
        <time>2022-11-17T10:03:31Z</time>
      </trkpt>
      <trkpt lat="44.67524" lon="5.19602">
        <ele>404</ele>
        <time>2022-11-17T10:03:31Z</time>
      </trkpt>
      <trkpt lat="44.67502" lon="5.19619">
        <ele>406</ele>
        <time>2022-11-17T10:03:31Z</time>
      </trkpt>
      <trkpt lat="44.67455" lon="5.1963">
        <ele>405</ele>
        <time>2022-11-17T10:03:31Z</time>
      </trkpt>
      <trkpt lat="44.6743" lon="5.19622">
        <ele>406</ele>
        <time>2022-11-17T10:03:31Z</time>
      </trkpt>
      <trkpt lat="44.67407" lon="5.19638">
        <ele>407</ele>
        <time>2022-11-17T10:03:31Z</time>
      </trkpt>
      <trkpt lat="44.6739" lon="5.19664">
        <ele>413</ele>
        <time>2022-11-17T10:03:31Z</time>
      </trkpt>
      <trkpt lat="44.67371" lon="5.19724">
        <ele>414</ele>
        <time>2022-11-17T10:03:31Z</time>
      </trkpt>
      <trkpt lat="44.67361" lon="5.19756">
        <ele>416</ele>
        <time>2022-11-17T10:03:31Z</time>
      </trkpt>
      <trkpt lat="44.67358" lon="5.1979">
        <ele>416</ele>
        <time>2022-11-17T10:03:31Z</time>
      </trkpt>
      <trkpt lat="44.67346" lon="5.19822">
        <ele>417</ele>
        <time>2022-11-17T10:03:31Z</time>
      </trkpt>
      <trkpt lat="44.67322" lon="5.19839">
        <ele>419</ele>
        <time>2022-11-17T10:03:31Z</time>
      </trkpt>
      <trkpt lat="44.67301" lon="5.19857">
        <ele>421</ele>
        <time>2022-11-17T10:03:31Z</time>
      </trkpt>
      <trkpt lat="44.67282" lon="5.19876">
        <ele>424</ele>
        <time>2022-11-17T10:03:31Z</time>
      </trkpt>
      <trkpt lat="44.67238" lon="5.19903">
        <ele>427</ele>
        <time>2022-11-17T10:03:31Z</time>
      </trkpt>
      <trkpt lat="44.67216" lon="5.19922">
        <ele>429</ele>
        <time>2022-11-17T10:03:31Z</time>
      </trkpt>
      <trkpt lat="44.67197" lon="5.19943">
        <ele>431</ele>
        <time>2022-11-17T10:03:31Z</time>
      </trkpt>
      <trkpt lat="44.67151" lon="5.19967">
        <ele>433</ele>
        <time>2022-11-17T10:03:31Z</time>
      </trkpt>
      <trkpt lat="44.6711" lon="5.2001">
        <ele>436</ele>
        <time>2022-11-17T10:03:31Z</time>
      </trkpt>
      <trkpt lat="44.67093" lon="5.20037">
        <ele>439</ele>
        <time>2022-11-17T10:03:31Z</time>
      </trkpt>
      <trkpt lat="44.67066" lon="5.20094">
        <ele>442</ele>
        <time>2022-11-17T10:03:31Z</time>
      </trkpt>
      <trkpt lat="44.66999" lon="5.20141">
        <ele>445</ele>
        <time>2022-11-17T10:03:31Z</time>
      </trkpt>
      <trkpt lat="44.66957" lon="5.2022">
        <ele>447</ele>
        <time>2022-11-17T10:03:31Z</time>
      </trkpt>
      <trkpt lat="44.66917" lon="5.20261">
        <ele>450</ele>
        <time>2022-11-17T10:03:31Z</time>
      </trkpt>
      <trkpt lat="44.66898" lon="5.20286">
        <ele>452</ele>
        <time>2022-11-17T10:03:31Z</time>
      </trkpt>
      <trkpt lat="44.66864" lon="5.20336">
        <ele>455</ele>
        <time>2022-11-17T10:03:31Z</time>
      </trkpt>
      <trkpt lat="44.66847" lon="5.20361">
        <ele>457</ele>
        <time>2022-11-17T10:03:31Z</time>
      </trkpt>
      <trkpt lat="44.66811" lon="5.20407">
        <ele>460</ele>
        <time>2022-11-17T10:03:31Z</time>
      </trkpt>
      <trkpt lat="44.6679" lon="5.20426">
        <ele>462</ele>
        <time>2022-11-17T10:03:31Z</time>
      </trkpt>
      <trkpt lat="44.66743" lon="5.20449">
        <ele>465</ele>
        <time>2022-11-17T10:03:31Z</time>
      </trkpt>
      <trkpt lat="44.66678" lon="5.20498">
        <ele>467</ele>
        <time>2022-11-17T10:03:31Z</time>
      </trkpt>
      <trkpt lat="44.66633" lon="5.20527">
        <ele>470</ele>
        <time>2022-11-17T10:03:31Z</time>
      </trkpt>
      <trkpt lat="44.66619" lon="5.20554">
        <ele>471</ele>
        <time>2022-11-17T10:03:31Z</time>
      </trkpt>
      <trkpt lat="44.66608" lon="5.20585">
        <ele>473</ele>
        <time>2022-11-17T10:03:31Z</time>
      </trkpt>
      <trkpt lat="44.66596" lon="5.20613">
        <ele>475</ele>
        <time>2022-11-17T10:03:31Z</time>
      </trkpt>
      <trkpt lat="44.66582" lon="5.20585">
        <ele>479</ele>
        <time>2022-11-17T10:03:31Z</time>
      </trkpt>
      <trkpt lat="44.66589" lon="5.20554">
        <ele>481</ele>
        <time>2022-11-17T10:03:31Z</time>
      </trkpt>
      <trkpt lat="44.66597" lon="5.20523">
        <ele>484</ele>
        <time>2022-11-17T10:03:31Z</time>
      </trkpt>
      <trkpt lat="44.66582" lon="5.20457">
        <ele>487</ele>
        <time>2022-11-17T10:03:31Z</time>
      </trkpt>
      <trkpt lat="44.66578" lon="5.20392">
        <ele>486</ele>
        <time>2022-11-17T10:03:31Z</time>
      </trkpt>
      <trkpt lat="44.66578" lon="5.2036">
        <ele>490</ele>
        <time>2022-11-17T10:03:31Z</time>
      </trkpt>
      <trkpt lat="44.6657" lon="5.2033">
        <ele>495</ele>
        <time>2022-11-17T10:03:31Z</time>
      </trkpt>
      <trkpt lat="44.66555" lon="5.20304">
        <ele>501</ele>
        <time>2022-11-17T10:03:31Z</time>
      </trkpt>
      <trkpt lat="44.66546" lon="5.20275">
        <ele>503</ele>
        <time>2022-11-17T10:03:31Z</time>
      </trkpt>
      <trkpt lat="44.66549" lon="5.20242">
        <ele>508</ele>
        <time>2022-11-17T10:03:31Z</time>
      </trkpt>
      <trkpt lat="44.66543" lon="5.2021">
        <ele>512</ele>
        <time>2022-11-17T10:03:31Z</time>
      </trkpt>
      <trkpt lat="44.66531" lon="5.20183">
        <ele>518</ele>
        <time>2022-11-17T10:03:31Z</time>
      </trkpt>
      <trkpt lat="44.66522" lon="5.20152">
        <ele>523</ele>
        <time>2022-11-17T10:03:31Z</time>
      </trkpt>
      <trkpt lat="44.66509" lon="5.20126">
        <ele>527</ele>
        <time>2022-11-17T10:03:31Z</time>
      </trkpt>
      <trkpt lat="44.66489" lon="5.20109">
        <ele>533</ele>
        <time>2022-11-17T10:03:31Z</time>
      </trkpt>
      <trkpt lat="44.66471" lon="5.20089">
        <ele>542</ele>
        <time>2022-11-17T10:03:31Z</time>
      </trkpt>
      <trkpt lat="44.6646" lon="5.2006">
        <ele>544</ele>
        <time>2022-11-17T10:03:31Z</time>
      </trkpt>
      <trkpt lat="44.66449" lon="5.19998">
        <ele>547</ele>
        <time>2022-11-17T10:03:31Z</time>
      </trkpt>
      <trkpt lat="44.66438" lon="5.19969">
        <ele>549</ele>
        <time>2022-11-17T10:03:31Z</time>
      </trkpt>
      <trkpt lat="44.66422" lon="5.19946">
        <ele>554</ele>
        <time>2022-11-17T10:03:31Z</time>
      </trkpt>
      <trkpt lat="44.66411" lon="5.19917">
        <ele>563</ele>
        <time>2022-11-17T10:03:31Z</time>
      </trkpt>
      <trkpt lat="44.66399" lon="5.19888">
        <ele>570</ele>
        <time>2022-11-17T10:03:31Z</time>
      </trkpt>
      <trkpt lat="44.66387" lon="5.19861">
        <ele>574</ele>
        <time>2022-11-17T10:03:31Z</time>
      </trkpt>
      <trkpt lat="44.66372" lon="5.19834">
        <ele>577</ele>
        <time>2022-11-17T10:03:31Z</time>
      </trkpt>
      <trkpt lat="44.66352" lon="5.19819">
        <ele>581</ele>
        <time>2022-11-17T10:03:31Z</time>
      </trkpt>
      <trkpt lat="44.66333" lon="5.19802">
        <ele>588</ele>
        <time>2022-11-17T10:03:31Z</time>
      </trkpt>
      <trkpt lat="44.66322" lon="5.19773">
        <ele>592</ele>
        <time>2022-11-17T10:03:31Z</time>
      </trkpt>
      <trkpt lat="44.66314" lon="5.19743">
        <ele>596</ele>
        <time>2022-11-17T10:03:31Z</time>
      </trkpt>
      <trkpt lat="44.66306" lon="5.19712">
        <ele>598</ele>
        <time>2022-11-17T10:03:31Z</time>
      </trkpt>
      <trkpt lat="44.66297" lon="5.19682">
        <ele>602</ele>
        <time>2022-11-17T10:03:31Z</time>
      </trkpt>
      <trkpt lat="44.66284" lon="5.19656">
        <ele>609</ele>
        <time>2022-11-17T10:03:31Z</time>
      </trkpt>
      <trkpt lat="44.66288" lon="5.19623">
        <ele>613</ele>
        <time>2022-11-17T10:03:31Z</time>
      </trkpt>
      <trkpt lat="44.66281" lon="5.19592">
        <ele>618</ele>
        <time>2022-11-17T10:03:31Z</time>
      </trkpt>
      <trkpt lat="44.66274" lon="5.19528">
        <ele>626</ele>
        <time>2022-11-17T10:03:31Z</time>
      </trkpt>
      <trkpt lat="44.66258" lon="5.19468">
        <ele>635</ele>
        <time>2022-11-17T10:03:31Z</time>
      </trkpt>
      <trkpt lat="44.66257" lon="5.19436">
        <ele>640</ele>
        <time>2022-11-17T10:03:31Z</time>
      </trkpt>
      <trkpt lat="44.6625" lon="5.19373">
        <ele>645</ele>
        <time>2022-11-17T10:03:31Z</time>
      </trkpt>
      <trkpt lat="44.66242" lon="5.19343">
        <ele>649</ele>
        <time>2022-11-17T10:03:31Z</time>
      </trkpt>
      <trkpt lat="44.66233" lon="5.19313">
        <ele>655</ele>
        <time>2022-11-17T10:03:31Z</time>
      </trkpt>
      <trkpt lat="44.66249" lon="5.19291">
        <ele>656</ele>
        <time>2022-11-17T10:03:31Z</time>
      </trkpt>
      <trkpt lat="44.66269" lon="5.19274">
        <ele>658</ele>
        <time>2022-11-17T10:03:31Z</time>
      </trkpt>
      <trkpt lat="44.66292" lon="5.19275">
        <ele>660</ele>
        <time>2022-11-17T10:03:31Z</time>
      </trkpt>
      <trkpt lat="44.66309" lon="5.19298">
        <ele>662</ele>
        <time>2022-11-17T10:03:31Z</time>
      </trkpt>
      <trkpt lat="44.66335" lon="5.19351">
        <ele>666</ele>
        <time>2022-11-17T10:03:31Z</time>
      </trkpt>
      <trkpt lat="44.66364" lon="5.194">
        <ele>672</ele>
        <time>2022-11-17T10:03:31Z</time>
      </trkpt>
      <trkpt lat="44.66373" lon="5.19429">
        <ele>673</ele>
        <time>2022-11-17T10:03:31Z</time>
      </trkpt>
      <trkpt lat="44.66377" lon="5.19396">
        <ele>679</ele>
        <time>2022-11-17T10:03:31Z</time>
      </trkpt>
      <trkpt lat="44.66375" lon="5.19363">
        <ele>684</ele>
        <time>2022-11-17T10:03:31Z</time>
      </trkpt>
      <trkpt lat="44.66382" lon="5.19332">
        <ele>687</ele>
        <time>2022-11-17T10:03:31Z</time>
      </trkpt>
      <trkpt lat="44.66377" lon="5.19299">
        <ele>691</ele>
        <time>2022-11-17T10:03:31Z</time>
      </trkpt>
      <trkpt lat="44.6637" lon="5.19267">
        <ele>695</ele>
        <time>2022-11-17T10:03:31Z</time>
      </trkpt>
      <trkpt lat="44.66366" lon="5.19235">
        <ele>697</ele>
        <time>2022-11-17T10:03:31Z</time>
      </trkpt>
      <trkpt lat="44.66362" lon="5.19202">
        <ele>700</ele>
        <time>2022-11-17T10:03:31Z</time>
      </trkpt>
      <trkpt lat="44.66358" lon="5.19171">
        <ele>702</ele>
        <time>2022-11-17T10:03:31Z</time>
      </trkpt>
      <trkpt lat="44.66337" lon="5.19108">
        <ele>701</ele>
        <time>2022-11-17T10:03:31Z</time>
      </trkpt>
      <trkpt lat="44.6632" lon="5.19082">
        <ele>698</ele>
        <time>2022-11-17T10:03:31Z</time>
      </trkpt>
      <trkpt lat="44.6631" lon="5.19049">
        <ele>697</ele>
        <time>2022-11-17T10:03:31Z</time>
      </trkpt>
      <trkpt lat="44.66316" lon="5.1901">
        <ele>692</ele>
        <time>2022-11-17T10:03:31Z</time>
      </trkpt>
      <trkpt lat="44.66317" lon="5.18971">
        <ele>689</ele>
        <time>2022-11-17T10:03:31Z</time>
      </trkpt>
      <trkpt lat="44.66318" lon="5.18897">
        <ele>686</ele>
        <time>2022-11-17T10:03:31Z</time>
      </trkpt>
      <trkpt lat="44.6635" lon="5.18846">
        <ele>685</ele>
        <time>2022-11-17T10:03:31Z</time>
      </trkpt>
      <trkpt lat="44.66354" lon="5.18812">
        <ele>685</ele>
        <time>2022-11-17T10:03:31Z</time>
      </trkpt>
      <trkpt lat="44.66345" lon="5.18781">
        <ele>685</ele>
        <time>2022-11-17T10:03:31Z</time>
      </trkpt>
      <trkpt lat="44.66344" lon="5.18749">
        <ele>686</ele>
        <time>2022-11-17T10:03:31Z</time>
      </trkpt>
      <trkpt lat="44.66346" lon="5.18717">
        <ele>690</ele>
        <time>2022-11-17T10:03:31Z</time>
      </trkpt>
      <trkpt lat="44.6634" lon="5.18686">
        <ele>693</ele>
        <time>2022-11-17T10:03:31Z</time>
      </trkpt>
      <trkpt lat="44.66329" lon="5.18657">
        <ele>695</ele>
        <time>2022-11-17T10:03:31Z</time>
      </trkpt>
      <trkpt lat="44.66312" lon="5.18634">
        <ele>700</ele>
        <time>2022-11-17T10:03:31Z</time>
      </trkpt>
      <trkpt lat="44.66296" lon="5.1861">
        <ele>707</ele>
        <time>2022-11-17T10:03:31Z</time>
      </trkpt>
      <trkpt lat="44.66302" lon="5.18578">
        <ele>711</ele>
        <time>2022-11-17T10:03:31Z</time>
      </trkpt>
      <trkpt lat="44.66313" lon="5.18548">
        <ele>713</ele>
        <time>2022-11-17T10:03:31Z</time>
      </trkpt>
      <trkpt lat="44.66328" lon="5.18523">
        <ele>715</ele>
        <time>2022-11-17T10:03:31Z</time>
      </trkpt>
      <trkpt lat="44.66308" lon="5.18507">
        <ele>719</ele>
        <time>2022-11-17T10:03:31Z</time>
      </trkpt>
      <trkpt lat="44.66285" lon="5.18516">
        <ele>720</ele>
        <time>2022-11-17T10:03:31Z</time>
      </trkpt>
      <trkpt lat="44.66263" lon="5.18525">
        <ele>723</ele>
        <time>2022-11-17T10:03:31Z</time>
      </trkpt>
      <trkpt lat="44.66276" lon="5.18498">
        <ele>729</ele>
        <time>2022-11-17T10:03:31Z</time>
      </trkpt>
      <trkpt lat="44.66288" lon="5.1847">
        <ele>731</ele>
        <time>2022-11-17T10:03:31Z</time>
      </trkpt>
      <trkpt lat="44.66299" lon="5.1844">
        <ele>735</ele>
        <time>2022-11-17T10:03:31Z</time>
      </trkpt>
      <trkpt lat="44.66315" lon="5.18417">
        <ele>736</ele>
        <time>2022-11-17T10:03:31Z</time>
      </trkpt>
      <trkpt lat="44.66335" lon="5.18399">
        <ele>740</ele>
        <time>2022-11-17T10:03:31Z</time>
      </trkpt>
      <trkpt lat="44.66354" lon="5.1838">
        <ele>745</ele>
        <time>2022-11-17T10:03:31Z</time>
      </trkpt>
      <trkpt lat="44.66378" lon="5.18371">
        <ele>747</ele>
        <time>2022-11-17T10:03:31Z</time>
      </trkpt>
      <trkpt lat="44.66396" lon="5.18352">
        <ele>749</ele>
        <time>2022-11-17T10:03:31Z</time>
      </trkpt>
      <trkpt lat="44.66393" lon="5.18317">
        <ele>752</ele>
        <time>2022-11-17T10:03:31Z</time>
      </trkpt>
      <trkpt lat="44.66376" lon="5.18293">
        <ele>752</ele>
        <time>2022-11-17T10:03:31Z</time>
      </trkpt>
      <trkpt lat="44.66333" lon="5.18259">
        <ele>755</ele>
        <time>2022-11-17T10:03:31Z</time>
      </trkpt>
      <trkpt lat="44.66317" lon="5.18233">
        <ele>756</ele>
        <time>2022-11-17T10:03:31Z</time>
      </trkpt>
      <trkpt lat="44.66295" lon="5.18176">
        <ele>758</ele>
        <time>2022-11-17T10:03:31Z</time>
      </trkpt>
      <trkpt lat="44.66278" lon="5.18149">
        <ele>757</ele>
        <time>2022-11-17T10:03:31Z</time>
      </trkpt>
      <trkpt lat="44.66259" lon="5.18131">
        <ele>757</ele>
        <time>2022-11-17T10:03:31Z</time>
      </trkpt>
      <trkpt lat="44.66237" lon="5.18122">
        <ele>759</ele>
        <time>2022-11-17T10:03:31Z</time>
      </trkpt>
      <trkpt lat="44.66223" lon="5.18096">
        <ele>761</ele>
        <time>2022-11-17T10:03:31Z</time>
      </trkpt>
      <trkpt lat="44.6619" lon="5.18051">
        <ele>765</ele>
        <time>2022-11-17T10:03:31Z</time>
      </trkpt>
      <trkpt lat="44.66192" lon="5.18018">
        <ele>766</ele>
        <time>2022-11-17T10:03:31Z</time>
      </trkpt>
      <trkpt lat="44.66191" lon="5.17986">
        <ele>769</ele>
        <time>2022-11-17T10:03:31Z</time>
      </trkpt>
      <trkpt lat="44.66209" lon="5.17964">
        <ele>770</ele>
        <time>2022-11-17T10:03:31Z</time>
      </trkpt>
      <trkpt lat="44.66217" lon="5.17933">
        <ele>772</ele>
        <time>2022-11-17T10:03:31Z</time>
      </trkpt>
      <trkpt lat="44.6626" lon="5.17904">
        <ele>773</ele>
        <time>2022-11-17T10:03:31Z</time>
      </trkpt>
      <trkpt lat="44.66277" lon="5.1788">
        <ele>775</ele>
        <time>2022-11-17T10:03:31Z</time>
      </trkpt>
      <trkpt lat="44.66283" lon="5.17845">
        <ele>779</ele>
        <time>2022-11-17T10:03:31Z</time>
      </trkpt>
      <trkpt lat="44.66316" lon="5.17798">
        <ele>781</ele>
        <time>2022-11-17T10:03:31Z</time>
      </trkpt>
      <trkpt lat="44.66332" lon="5.17774">
        <ele>783</ele>
        <time>2022-11-17T10:03:31Z</time>
      </trkpt>
      <trkpt lat="44.66332" lon="5.1774">
        <ele>787</ele>
        <time>2022-11-17T10:03:31Z</time>
      </trkpt>
      <trkpt lat="44.66318" lon="5.17713">
        <ele>790</ele>
        <time>2022-11-17T10:03:31Z</time>
      </trkpt>
      <trkpt lat="44.66319" lon="5.17681">
        <ele>791</ele>
        <time>2022-11-17T10:03:31Z</time>
      </trkpt>
      <trkpt lat="44.66342" lon="5.1767">
        <ele>792</ele>
        <time>2022-11-17T10:03:31Z</time>
      </trkpt>
      <trkpt lat="44.66364" lon="5.17655">
        <ele>794</ele>
        <time>2022-11-17T10:03:31Z</time>
      </trkpt>
      <trkpt lat="44.66379" lon="5.1763">
        <ele>795</ele>
        <time>2022-11-17T10:03:31Z</time>
      </trkpt>
      <trkpt lat="44.66378" lon="5.17599">
        <ele>799</ele>
        <time>2022-11-17T10:03:31Z</time>
      </trkpt>
      <trkpt lat="44.66359" lon="5.17578">
        <ele>796</ele>
        <time>2022-11-17T10:03:31Z</time>
      </trkpt>
      <trkpt lat="44.66363" lon="5.17545">
        <ele>796</ele>
        <time>2022-11-17T10:03:31Z</time>
      </trkpt>
      <trkpt lat="44.66392" lon="5.17452">
        <ele>795</ele>
        <time>2022-11-17T10:03:31Z</time>
      </trkpt>
      <trkpt lat="44.66401" lon="5.17419">
        <ele>792</ele>
        <time>2022-11-17T10:03:31Z</time>
      </trkpt>
      <trkpt lat="44.66408" lon="5.17389">
        <ele>788</ele>
        <time>2022-11-17T10:03:31Z</time>
      </trkpt>
      <trkpt lat="44.66395" lon="5.17361">
        <ele>786</ele>
        <time>2022-11-17T10:03:31Z</time>
      </trkpt>
      <trkpt lat="44.66409" lon="5.17279">
        <ele>785</ele>
        <time>2022-11-17T10:03:31Z</time>
      </trkpt>
      <trkpt lat="44.66416" lon="5.17179">
        <ele>780</ele>
        <time>2022-11-17T10:03:31Z</time>
      </trkpt>
      <trkpt lat="44.66407" lon="5.17147">
        <ele>780</ele>
        <time>2022-11-17T10:03:31Z</time>
      </trkpt>
      <trkpt lat="44.66385" lon="5.17131">
        <ele>780</ele>
        <time>2022-11-17T10:03:31Z</time>
      </trkpt>
      <trkpt lat="44.66388" lon="5.17096">
        <ele>781</ele>
        <time>2022-11-17T10:03:31Z</time>
      </trkpt>
      <trkpt lat="44.6645" lon="5.16984">
        <ele>781</ele>
        <time>2022-11-17T10:03:31Z</time>
      </trkpt>
      <trkpt lat="44.66471" lon="5.16963">
        <ele>778</ele>
        <time>2022-11-17T10:03:31Z</time>
      </trkpt>
      <trkpt lat="44.66491" lon="5.16948">
        <ele>774</ele>
        <time>2022-11-17T10:03:31Z</time>
      </trkpt>
      <trkpt lat="44.66513" lon="5.1693">
        <ele>771</ele>
        <time>2022-11-17T10:03:31Z</time>
      </trkpt>
      <trkpt lat="44.66544" lon="5.16877">
        <ele>767</ele>
        <time>2022-11-17T10:03:31Z</time>
      </trkpt>
      <trkpt lat="44.66558" lon="5.16848">
        <ele>765</ele>
        <time>2022-11-17T10:03:31Z</time>
      </trkpt>
      <trkpt lat="44.66566" lon="5.16817">
        <ele>764</ele>
        <time>2022-11-17T10:03:31Z</time>
      </trkpt>
      <trkpt lat="44.66562" lon="5.16784">
        <ele>760</ele>
        <time>2022-11-17T10:03:31Z</time>
      </trkpt>
      <trkpt lat="44.66561" lon="5.16749">
        <ele>758</ele>
        <time>2022-11-17T10:03:31Z</time>
      </trkpt>
      <trkpt lat="44.66562" lon="5.16709">
        <ele>755</ele>
        <time>2022-11-17T10:03:31Z</time>
      </trkpt>
      <trkpt lat="44.66568" lon="5.16673">
        <ele>753</ele>
        <time>2022-11-17T10:03:31Z</time>
      </trkpt>
      <trkpt lat="44.66574" lon="5.16641">
        <ele>751</ele>
        <time>2022-11-17T10:03:31Z</time>
      </trkpt>
      <trkpt lat="44.66577" lon="5.16606">
        <ele>749</ele>
        <time>2022-11-17T10:03:31Z</time>
      </trkpt>
      <trkpt lat="44.66581" lon="5.16569">
        <ele>747</ele>
        <time>2022-11-17T10:03:31Z</time>
      </trkpt>
      <trkpt lat="44.66576" lon="5.1653">
        <ele>746</ele>
        <time>2022-11-17T10:03:31Z</time>
      </trkpt>
      <trkpt lat="44.66581" lon="5.16496">
        <ele>745</ele>
        <time>2022-11-17T10:03:31Z</time>
      </trkpt>
      <trkpt lat="44.66593" lon="5.16466">
        <ele>744</ele>
        <time>2022-11-17T10:03:31Z</time>
      </trkpt>
      <trkpt lat="44.66605" lon="5.16436">
        <ele>742</ele>
        <time>2022-11-17T10:03:31Z</time>
      </trkpt>
      <trkpt lat="44.66612" lon="5.16404">
        <ele>741</ele>
        <time>2022-11-17T10:03:31Z</time>
      </trkpt>
      <trkpt lat="44.66617" lon="5.16372">
        <ele>738</ele>
        <time>2022-11-17T10:03:31Z</time>
      </trkpt>
      <trkpt lat="44.66618" lon="5.16304">
        <ele>734</ele>
        <time>2022-11-17T10:03:31Z</time>
      </trkpt>
      <trkpt lat="44.66626" lon="5.16271">
        <ele>731</ele>
        <time>2022-11-17T10:03:31Z</time>
      </trkpt>
      <trkpt lat="44.66672" lon="5.16155">
        <ele>731</ele>
        <time>2022-11-17T10:03:31Z</time>
      </trkpt>
      <trkpt lat="44.66683" lon="5.16126">
        <ele>733</ele>
        <time>2022-11-17T10:03:31Z</time>
      </trkpt>
      <trkpt lat="44.66687" lon="5.16095">
        <ele>731</ele>
        <time>2022-11-17T10:03:31Z</time>
      </trkpt>
      <trkpt lat="44.6668" lon="5.16064">
        <ele>731</ele>
        <time>2022-11-17T10:03:31Z</time>
      </trkpt>
      <trkpt lat="44.66678" lon="5.16028">
        <ele>732</ele>
        <time>2022-11-17T10:03:31Z</time>
      </trkpt>
      <trkpt lat="44.66685" lon="5.15998">
        <ele>729</ele>
        <time>2022-11-17T10:03:31Z</time>
      </trkpt>
      <trkpt lat="44.66688" lon="5.15965">
        <ele>727</ele>
        <time>2022-11-17T10:03:31Z</time>
      </trkpt>
      <trkpt lat="44.66677" lon="5.1593">
        <ele>725</ele>
        <time>2022-11-17T10:03:31Z</time>
      </trkpt>
      <trkpt lat="44.6666" lon="5.15906">
        <ele>724</ele>
        <time>2022-11-17T10:03:31Z</time>
      </trkpt>
      <trkpt lat="44.66644" lon="5.15879">
        <ele>722</ele>
        <time>2022-11-17T10:03:31Z</time>
      </trkpt>
      <trkpt lat="44.66623" lon="5.15814">
        <ele>719</ele>
        <time>2022-11-17T10:03:31Z</time>
      </trkpt>
      <trkpt lat="44.66632" lon="5.15715">
        <ele>718</ele>
        <time>2022-11-17T10:03:31Z</time>
      </trkpt>
      <trkpt lat="44.66623" lon="5.15685">
        <ele>719</ele>
        <time>2022-11-17T10:03:31Z</time>
      </trkpt>
      <trkpt lat="44.66628" lon="5.15653">
        <ele>720</ele>
        <time>2022-11-17T10:03:31Z</time>
      </trkpt>
      <trkpt lat="44.6664" lon="5.15624">
        <ele>724</ele>
        <time>2022-11-17T10:03:31Z</time>
      </trkpt>
      <trkpt lat="44.6666" lon="5.15603">
        <ele>728</ele>
        <time>2022-11-17T10:03:31Z</time>
      </trkpt>
      <trkpt lat="44.6668" lon="5.15584">
        <ele>731</ele>
        <time>2022-11-17T10:03:31Z</time>
      </trkpt>
      <trkpt lat="44.66703" lon="5.15574">
        <ele>722</ele>
        <time>2022-11-17T10:03:31Z</time>
      </trkpt>
      <trkpt lat="44.66729" lon="5.15558">
        <ele>715</ele>
        <time>2022-11-17T10:03:31Z</time>
      </trkpt>
      <trkpt lat="44.66751" lon="5.15541">
        <ele>718</ele>
        <time>2022-11-17T10:03:31Z</time>
      </trkpt>
      <trkpt lat="44.66773" lon="5.15529">
        <ele>722</ele>
        <time>2022-11-17T10:03:31Z</time>
      </trkpt>
      <trkpt lat="44.66792" lon="5.15504">
        <ele>722</ele>
        <time>2022-11-17T10:03:31Z</time>
      </trkpt>
      <trkpt lat="44.66798" lon="5.15472">
        <ele>720</ele>
        <time>2022-11-17T10:03:31Z</time>
      </trkpt>
      <trkpt lat="44.66809" lon="5.15441">
        <ele>717</ele>
        <time>2022-11-17T10:03:31Z</time>
      </trkpt>
      <trkpt lat="44.66825" lon="5.15409">
        <ele>712</ele>
        <time>2022-11-17T10:03:31Z</time>
      </trkpt>
      <trkpt lat="44.66841" lon="5.15382">
        <ele>706</ele>
        <time>2022-11-17T10:03:31Z</time>
      </trkpt>
      <trkpt lat="44.66833" lon="5.1535">
        <ele>702</ele>
        <time>2022-11-17T10:03:31Z</time>
      </trkpt>
      <trkpt lat="44.66828" lon="5.15311">
        <ele>693</ele>
        <time>2022-11-17T10:03:31Z</time>
      </trkpt>
      <trkpt lat="44.6682" lon="5.15272">
        <ele>689</ele>
        <time>2022-11-17T10:03:31Z</time>
      </trkpt>
      <trkpt lat="44.6681" lon="5.15239">
        <ele>687</ele>
        <time>2022-11-17T10:03:31Z</time>
      </trkpt>
      <trkpt lat="44.66816" lon="5.15201">
        <ele>682</ele>
        <time>2022-11-17T10:03:31Z</time>
      </trkpt>
      <trkpt lat="44.66812" lon="5.15168">
        <ele>681</ele>
        <time>2022-11-17T10:03:31Z</time>
      </trkpt>
      <trkpt lat="44.66797" lon="5.15138">
        <ele>678</ele>
        <time>2022-11-17T10:03:31Z</time>
      </trkpt>
      <trkpt lat="44.66781" lon="5.15114">
        <ele>676</ele>
        <time>2022-11-17T10:03:31Z</time>
      </trkpt>
      <trkpt lat="44.6676" lon="5.15092">
        <ele>671</ele>
        <time>2022-11-17T10:03:31Z</time>
      </trkpt>
      <trkpt lat="44.66745" lon="5.15062">
        <ele>668</ele>
        <time>2022-11-17T10:03:31Z</time>
      </trkpt>
      <trkpt lat="44.66742" lon="5.1503">
        <ele>664</ele>
        <time>2022-11-17T10:03:31Z</time>
      </trkpt>
      <trkpt lat="44.66747" lon="5.14959">
        <ele>659</ele>
        <time>2022-11-17T10:03:31Z</time>
      </trkpt>
      <trkpt lat="44.66759" lon="5.14927">
        <ele>655</ele>
        <time>2022-11-17T10:03:31Z</time>
      </trkpt>
      <trkpt lat="44.66777" lon="5.149">
        <ele>648</ele>
        <time>2022-11-17T10:03:31Z</time>
      </trkpt>
      <trkpt lat="44.6679" lon="5.14866">
        <ele>643</ele>
        <time>2022-11-17T10:03:31Z</time>
      </trkpt>
      <trkpt lat="44.6679" lon="5.14833">
        <ele>640</ele>
        <time>2022-11-17T10:03:31Z</time>
      </trkpt>
      <trkpt lat="44.66823" lon="5.14743">
        <ele>636</ele>
        <time>2022-11-17T10:03:31Z</time>
      </trkpt>
      <trkpt lat="44.66819" lon="5.1471">
        <ele>640</ele>
        <time>2022-11-17T10:03:31Z</time>
      </trkpt>
      <trkpt lat="44.66804" lon="5.14685">
        <ele>639</ele>
        <time>2022-11-17T10:03:31Z</time>
      </trkpt>
      <trkpt lat="44.66786" lon="5.14666">
        <ele>643</ele>
        <time>2022-11-17T10:03:31Z</time>
      </trkpt>
      <trkpt lat="44.66764" lon="5.1467">
        <ele>643</ele>
        <time>2022-11-17T10:03:31Z</time>
      </trkpt>
      <trkpt lat="44.66742" lon="5.14661">
        <ele>642</ele>
        <time>2022-11-17T10:03:31Z</time>
      </trkpt>
      <trkpt lat="44.66682" lon="5.14599">
        <ele>642</ele>
        <time>2022-11-17T10:03:31Z</time>
      </trkpt>
      <trkpt lat="44.66677" lon="5.14567">
        <ele>642</ele>
        <time>2022-11-17T10:03:31Z</time>
      </trkpt>
      <trkpt lat="44.66692" lon="5.14494">
        <ele>639</ele>
        <time>2022-11-17T10:03:31Z</time>
      </trkpt>
      <trkpt lat="44.66709" lon="5.14471">
        <ele>636</ele>
        <time>2022-11-17T10:03:31Z</time>
      </trkpt>
      <trkpt lat="44.66723" lon="5.145">
        <ele>633</ele>
        <time>2022-11-17T10:03:31Z</time>
      </trkpt>
      <trkpt lat="44.66731" lon="5.1453">
        <ele>629</ele>
        <time>2022-11-17T10:03:31Z</time>
      </trkpt>
      <trkpt lat="44.66747" lon="5.14556">
        <ele>625</ele>
        <time>2022-11-17T10:03:31Z</time>
      </trkpt>
      <trkpt lat="44.66759" lon="5.14525">
        <ele>621</ele>
        <time>2022-11-17T10:03:31Z</time>
      </trkpt>
      <trkpt lat="44.6676" lon="5.14492">
        <ele>617</ele>
        <time>2022-11-17T10:03:31Z</time>
      </trkpt>
      <trkpt lat="44.66764" lon="5.14456">
        <ele>615</ele>
        <time>2022-11-17T10:03:31Z</time>
      </trkpt>
      <trkpt lat="44.66808" lon="5.14324">
        <ele>611</ele>
        <time>2022-11-17T10:03:31Z</time>
      </trkpt>
      <trkpt lat="44.66825" lon="5.143">
        <ele>611</ele>
        <time>2022-11-17T10:03:31Z</time>
      </trkpt>
      <trkpt lat="44.66837" lon="5.14271">
        <ele>610</ele>
        <time>2022-11-17T10:03:31Z</time>
      </trkpt>
      <trkpt lat="44.66831" lon="5.14239">
        <ele>612</ele>
        <time>2022-11-17T10:03:31Z</time>
      </trkpt>
      <trkpt lat="44.66829" lon="5.14207">
        <ele>614</ele>
        <time>2022-11-17T10:03:31Z</time>
      </trkpt>
      <trkpt lat="44.66833" lon="5.14171">
        <ele>612</ele>
        <time>2022-11-17T10:03:31Z</time>
      </trkpt>
      <trkpt lat="44.66853" lon="5.14113">
        <ele>606</ele>
        <time>2022-11-17T10:03:31Z</time>
      </trkpt>
      <trkpt lat="44.66862" lon="5.14079">
        <ele>603</ele>
        <time>2022-11-17T10:03:31Z</time>
      </trkpt>
      <trkpt lat="44.6688" lon="5.14051">
        <ele>602</ele>
        <time>2022-11-17T10:03:31Z</time>
      </trkpt>
      <trkpt lat="44.669" lon="5.14033">
        <ele>602</ele>
        <time>2022-11-17T10:03:31Z</time>
      </trkpt>
      <trkpt lat="44.66894" lon="5.14066">
        <ele>597</ele>
        <time>2022-11-17T10:03:31Z</time>
      </trkpt>
      <trkpt lat="44.66916" lon="5.1408">
        <ele>593</ele>
        <time>2022-11-17T10:03:31Z</time>
      </trkpt>
      <trkpt lat="44.66963" lon="5.14094">
        <ele>592</ele>
        <time>2022-11-17T10:03:31Z</time>
      </trkpt>
      <trkpt lat="44.66985" lon="5.14082">
        <ele>591</ele>
        <time>2022-11-17T10:03:31Z</time>
      </trkpt>
      <trkpt lat="44.67051" lon="5.14042">
        <ele>587</ele>
        <time>2022-11-17T10:03:31Z</time>
      </trkpt>
      <trkpt lat="44.67098" lon="5.14019">
        <ele>583</ele>
        <time>2022-11-17T10:03:31Z</time>
      </trkpt>
      <trkpt lat="44.67119" lon="5.14002">
        <ele>577</ele>
        <time>2022-11-17T10:03:31Z</time>
      </trkpt>
      <trkpt lat="44.67129" lon="5.13974">
        <ele>575</ele>
        <time>2022-11-17T10:03:31Z</time>
      </trkpt>
      <trkpt lat="44.67152" lon="5.13966">
        <ele>582</ele>
        <time>2022-11-17T10:03:31Z</time>
      </trkpt>
      <trkpt lat="44.67168" lon="5.14025">
        <ele>581</ele>
        <time>2022-11-17T10:03:31Z</time>
      </trkpt>
      <trkpt lat="44.6718" lon="5.14058">
        <ele>578</ele>
        <time>2022-11-17T10:03:31Z</time>
      </trkpt>
      <trkpt lat="44.67189" lon="5.14088">
        <ele>575</ele>
        <time>2022-11-17T10:03:31Z</time>
      </trkpt>
      <trkpt lat="44.67187" lon="5.14121">
        <ele>572</ele>
        <time>2022-11-17T10:03:31Z</time>
      </trkpt>
      <trkpt lat="44.67149" lon="5.14162">
        <ele>569</ele>
        <time>2022-11-17T10:03:31Z</time>
      </trkpt>
      <trkpt lat="44.67137" lon="5.14196">
        <ele>566</ele>
        <time>2022-11-17T10:03:31Z</time>
      </trkpt>
      <trkpt lat="44.67144" lon="5.1423">
        <ele>563</ele>
        <time>2022-11-17T10:03:31Z</time>
      </trkpt>
      <trkpt lat="44.67196" lon="5.14293">
        <ele>557</ele>
        <time>2022-11-17T10:03:31Z</time>
      </trkpt>
      <trkpt lat="44.67217" lon="5.14306">
        <ele>553</ele>
        <time>2022-11-17T10:03:31Z</time>
      </trkpt>
      <trkpt lat="44.67235" lon="5.14328">
        <ele>548</ele>
        <time>2022-11-17T10:03:31Z</time>
      </trkpt>
      <trkpt lat="44.67249" lon="5.14355">
        <ele>543</ele>
        <time>2022-11-17T10:03:31Z</time>
      </trkpt>
      <trkpt lat="44.67266" lon="5.14379">
        <ele>538</ele>
        <time>2022-11-17T10:03:31Z</time>
      </trkpt>
      <trkpt lat="44.67283" lon="5.144">
        <ele>534</ele>
        <time>2022-11-17T10:03:31Z</time>
      </trkpt>
      <trkpt lat="44.67305" lon="5.14408">
        <ele>525</ele>
        <time>2022-11-17T10:03:31Z</time>
      </trkpt>
      <trkpt lat="44.67329" lon="5.14403">
        <ele>514</ele>
        <time>2022-11-17T10:03:31Z</time>
      </trkpt>
      <trkpt lat="44.67349" lon="5.14384">
        <ele>508</ele>
        <time>2022-11-17T10:03:31Z</time>
      </trkpt>
      <trkpt lat="44.67373" lon="5.14386">
        <ele>499</ele>
        <time>2022-11-17T10:03:31Z</time>
      </trkpt>
      <trkpt lat="44.67396" lon="5.14379">
        <ele>489</ele>
        <time>2022-11-17T10:03:31Z</time>
      </trkpt>
      <trkpt lat="44.67418" lon="5.14394">
        <ele>474</ele>
        <time>2022-11-17T10:03:31Z</time>
      </trkpt>
      <trkpt lat="44.67418" lon="5.14426">
        <ele>468</ele>
        <time>2022-11-17T10:03:31Z</time>
      </trkpt>
      <trkpt lat="44.67441" lon="5.14415">
        <ele>459</ele>
        <time>2022-11-17T10:03:31Z</time>
      </trkpt>
      <trkpt lat="44.67456" lon="5.14389">
        <ele>458</ele>
        <time>2022-11-17T10:03:31Z</time>
      </trkpt>
      <trkpt lat="44.67469" lon="5.14358">
        <ele>454</ele>
        <time>2022-11-17T10:03:31Z</time>
      </trkpt>
      <trkpt lat="44.67491" lon="5.14341">
        <ele>450</ele>
        <time>2022-11-17T10:03:31Z</time>
      </trkpt>
      <trkpt lat="44.67511" lon="5.14323">
        <ele>447</ele>
        <time>2022-11-17T10:03:31Z</time>
      </trkpt>
      <trkpt lat="44.67534" lon="5.14304">
        <ele>440</ele>
        <time>2022-11-17T10:03:31Z</time>
      </trkpt>
      <trkpt lat="44.67557" lon="5.14289">
        <ele>436</ele>
        <time>2022-11-17T10:03:31Z</time>
      </trkpt>
      <trkpt lat="44.67576" lon="5.14271">
        <ele>433</ele>
        <time>2022-11-17T10:03:31Z</time>
      </trkpt>
      <trkpt lat="44.67597" lon="5.14257">
        <ele>431</ele>
        <time>2022-11-17T10:03:31Z</time>
      </trkpt>
      <trkpt lat="44.6762" lon="5.14238">
        <ele>428</ele>
        <time>2022-11-17T10:03:31Z</time>
      </trkpt>
      <trkpt lat="44.67641" lon="5.14217">
        <ele>425</ele>
        <time>2022-11-17T10:03:31Z</time>
      </trkpt>
      <trkpt lat="44.6766" lon="5.14191">
        <ele>421</ele>
        <time>2022-11-17T10:03:31Z</time>
      </trkpt>
      <trkpt lat="44.67679" lon="5.14164">
        <ele>419</ele>
        <time>2022-11-17T10:03:31Z</time>
      </trkpt>
      <trkpt lat="44.67696" lon="5.1414">
        <ele>417</ele>
        <time>2022-11-17T10:03:31Z</time>
      </trkpt>
      <trkpt lat="44.67712" lon="5.14109">
        <ele>414</ele>
        <time>2022-11-17T10:03:31Z</time>
      </trkpt>
      <trkpt lat="44.67728" lon="5.14079">
        <ele>410</ele>
        <time>2022-11-17T10:03:31Z</time>
      </trkpt>
      <trkpt lat="44.67746" lon="5.1406">
        <ele>408</ele>
        <time>2022-11-17T10:03:31Z</time>
      </trkpt>
      <trkpt lat="44.67772" lon="5.14049">
        <ele>406</ele>
        <time>2022-11-17T10:03:31Z</time>
      </trkpt>
      <trkpt lat="44.67798" lon="5.14048">
        <ele>403</ele>
        <time>2022-11-17T10:03:31Z</time>
      </trkpt>
      <trkpt lat="44.67821" lon="5.14038">
        <ele>400</ele>
        <time>2022-11-17T10:03:31Z</time>
      </trkpt>
      <trkpt lat="44.67842" lon="5.14028">
        <ele>398</ele>
        <time>2022-11-17T10:03:31Z</time>
      </trkpt>
      <trkpt lat="44.67864" lon="5.14018">
        <ele>396</ele>
        <time>2022-11-17T10:03:31Z</time>
      </trkpt>
      <trkpt lat="44.6789" lon="5.14009">
        <ele>393</ele>
        <time>2022-11-17T10:03:31Z</time>
      </trkpt>
      <trkpt lat="44.67911" lon="5.13988">
        <ele>389</ele>
        <time>2022-11-17T10:03:31Z</time>
      </trkpt>
      <trkpt lat="44.67936" lon="5.13972">
        <ele>387</ele>
        <time>2022-11-17T10:03:31Z</time>
      </trkpt>
      <trkpt lat="44.68074" lon="5.13889">
        <ele>379</ele>
        <time>2022-11-17T10:03:31Z</time>
      </trkpt>
      <trkpt lat="44.68101" lon="5.13893">
        <ele>378</ele>
        <time>2022-11-17T10:03:31Z</time>
      </trkpt>
      <trkpt lat="44.68125" lon="5.13897">
        <ele>375</ele>
        <time>2022-11-17T10:03:31Z</time>
      </trkpt>
      <trkpt lat="44.68147" lon="5.13904">
        <ele>373</ele>
        <time>2022-11-17T10:03:31Z</time>
      </trkpt>
      <trkpt lat="44.68172" lon="5.13909">
        <ele>370</ele>
        <time>2022-11-17T10:03:31Z</time>
      </trkpt>
      <trkpt lat="44.68198" lon="5.13908">
        <ele>368</ele>
        <time>2022-11-17T10:03:31Z</time>
      </trkpt>
      <trkpt lat="44.68217" lon="5.13929">
        <ele>366</ele>
        <time>2022-11-17T10:03:31Z</time>
      </trkpt>
      <trkpt lat="44.68238" lon="5.13942">
        <ele>363</ele>
        <time>2022-11-17T10:03:31Z</time>
      </trkpt>
      <trkpt lat="44.68263" lon="5.13929">
        <ele>360</ele>
        <time>2022-11-17T10:03:31Z</time>
      </trkpt>
      <trkpt lat="44.68285" lon="5.13949">
        <ele>358</ele>
        <time>2022-11-17T10:03:31Z</time>
      </trkpt>
      <trkpt lat="44.68297" lon="5.13977">
        <ele>356</ele>
        <time>2022-11-17T10:03:31Z</time>
      </trkpt>
      <trkpt lat="44.68318" lon="5.1399">
        <ele>353</ele>
        <time>2022-11-17T10:03:31Z</time>
      </trkpt>
      <trkpt lat="44.68367" lon="5.13991">
        <ele>351</ele>
        <time>2022-11-17T10:03:31Z</time>
      </trkpt>
      <trkpt lat="44.68391" lon="5.14003">
        <ele>351</ele>
        <time>2022-11-17T10:03:31Z</time>
      </trkpt>
      <trkpt lat="44.68412" lon="5.14014">
        <ele>353</ele>
        <time>2022-11-17T10:03:31Z</time>
      </trkpt>
      <trkpt lat="44.68434" lon="5.14026">
        <ele>355</ele>
        <time>2022-11-17T10:03:31Z</time>
      </trkpt>
      <trkpt lat="44.68508" lon="5.14038">
        <ele>358</ele>
        <time>2022-11-17T10:03:31Z</time>
      </trkpt>
      <trkpt lat="44.68534" lon="5.14034">
        <ele>359</ele>
        <time>2022-11-17T10:03:31Z</time>
      </trkpt>
      <trkpt lat="44.68585" lon="5.14028">
        <ele>355</ele>
        <time>2022-11-17T10:03:31Z</time>
      </trkpt>
      <trkpt lat="44.6861" lon="5.1404">
        <ele>353</ele>
        <time>2022-11-17T10:03:31Z</time>
      </trkpt>
      <trkpt lat="44.688" lon="5.14095">
        <ele>352</ele>
        <time>2022-11-17T10:03:31Z</time>
      </trkpt>
      <trkpt lat="44.68778" lon="5.14105">
        <ele>356</ele>
        <time>2022-11-17T10:03:31Z</time>
      </trkpt>
      <trkpt lat="44.68706" lon="5.141">
        <ele>358</ele>
        <time>2022-11-17T10:03:31Z</time>
      </trkpt>
      <trkpt lat="44.68684" lon="5.14113">
        <ele>362</ele>
        <time>2022-11-17T10:03:31Z</time>
      </trkpt>
      <trkpt lat="44.6867" lon="5.14142">
        <ele>363</ele>
        <time>2022-11-17T10:03:31Z</time>
      </trkpt>
      <trkpt lat="44.68649" lon="5.14159">
        <ele>368</ele>
        <time>2022-11-17T10:03:31Z</time>
      </trkpt>
      <trkpt lat="44.68626" lon="5.14166">
        <ele>371</ele>
        <time>2022-11-17T10:03:31Z</time>
      </trkpt>
      <trkpt lat="44.68603" lon="5.14176">
        <ele>377</ele>
        <time>2022-11-17T10:03:31Z</time>
      </trkpt>
      <trkpt lat="44.68581" lon="5.14187">
        <ele>381</ele>
        <time>2022-11-17T10:03:31Z</time>
      </trkpt>
      <trkpt lat="44.68516" lon="5.14237">
        <ele>385</ele>
        <time>2022-11-17T10:03:31Z</time>
      </trkpt>
      <trkpt lat="44.68462" lon="5.14309">
        <ele>383</ele>
        <time>2022-11-17T10:03:31Z</time>
      </trkpt>
      <trkpt lat="44.68439" lon="5.14365">
        <ele>383</ele>
        <time>2022-11-17T10:03:31Z</time>
      </trkpt>
      <trkpt lat="44.68421" lon="5.1439">
        <ele>382</ele>
        <time>2022-11-17T10:03:31Z</time>
      </trkpt>
      <trkpt lat="44.68401" lon="5.14412">
        <ele>380</ele>
        <time>2022-11-17T10:03:31Z</time>
      </trkpt>
      <trkpt lat="44.68402" lon="5.14446">
        <ele>380</ele>
        <time>2022-11-17T10:03:31Z</time>
      </trkpt>
      <trkpt lat="44.6839" lon="5.14476">
        <ele>378</ele>
        <time>2022-11-17T10:03:31Z</time>
      </trkpt>
      <trkpt lat="44.68364" lon="5.14484">
        <ele>378</ele>
        <time>2022-11-17T10:03:31Z</time>
      </trkpt>
      <trkpt lat="44.68348" lon="5.14509">
        <ele>378</ele>
        <time>2022-11-17T10:03:31Z</time>
      </trkpt>
      <trkpt lat="44.68347" lon="5.14544">
        <ele>379</ele>
        <time>2022-11-17T10:03:31Z</time>
      </trkpt>
      <trkpt lat="44.68333" lon="5.1457">
        <ele>381</ele>
        <time>2022-11-17T10:03:31Z</time>
      </trkpt>
      <trkpt lat="44.68328" lon="5.14605">
        <ele>384</ele>
        <time>2022-11-17T10:03:31Z</time>
      </trkpt>
      <trkpt lat="44.68324" lon="5.14637">
        <ele>388</ele>
        <time>2022-11-17T10:03:31Z</time>
      </trkpt>
      <trkpt lat="44.68316" lon="5.14668">
        <ele>390</ele>
        <time>2022-11-17T10:03:31Z</time>
      </trkpt>
      <trkpt lat="44.68312" lon="5.14702">
        <ele>393</ele>
        <time>2022-11-17T10:03:31Z</time>
      </trkpt>
      <trkpt lat="44.68298" lon="5.14731">
        <ele>395</ele>
        <time>2022-11-17T10:03:31Z</time>
      </trkpt>
      <trkpt lat="44.68275" lon="5.14742">
        <ele>397</ele>
        <time>2022-11-17T10:03:31Z</time>
      </trkpt>
      <trkpt lat="44.68265" lon="5.14772">
        <ele>397</ele>
        <time>2022-11-17T10:03:31Z</time>
      </trkpt>
      <trkpt lat="44.68267" lon="5.14842">
        <ele>398</ele>
        <time>2022-11-17T10:03:31Z</time>
      </trkpt>
      <trkpt lat="44.68268" lon="5.14875">
        <ele>401</ele>
        <time>2022-11-17T10:03:31Z</time>
      </trkpt>
      <trkpt lat="44.6829" lon="5.14935">
        <ele>401</ele>
        <time>2022-11-17T10:03:31Z</time>
      </trkpt>
      <trkpt lat="44.68293" lon="5.14971">
        <ele>400</ele>
        <time>2022-11-17T10:03:31Z</time>
      </trkpt>
      <trkpt lat="44.68281" lon="5.14999">
        <ele>401</ele>
        <time>2022-11-17T10:03:31Z</time>
      </trkpt>
      <trkpt lat="44.68237" lon="5.15075">
        <ele>403</ele>
        <time>2022-11-17T10:03:31Z</time>
      </trkpt>
      <trkpt lat="44.68214" lon="5.15086">
        <ele>403</ele>
        <time>2022-11-17T10:03:31Z</time>
      </trkpt>
      <trkpt lat="44.68191" lon="5.1509">
        <ele>401</ele>
        <time>2022-11-17T10:03:31Z</time>
      </trkpt>
      <trkpt lat="44.68169" lon="5.15075">
        <ele>398</ele>
        <time>2022-11-17T10:03:31Z</time>
      </trkpt>
      <trkpt lat="44.68141" lon="5.15075">
        <ele>397</ele>
        <time>2022-11-17T10:03:31Z</time>
      </trkpt>
      <trkpt lat="44.68096" lon="5.15098">
        <ele>397</ele>
        <time>2022-11-17T10:03:31Z</time>
      </trkpt>
      <trkpt lat="44.68085" lon="5.1513">
        <ele>397</ele>
        <time>2022-11-17T10:03:31Z</time>
      </trkpt>
      <trkpt lat="44.68061" lon="5.15142">
        <ele>400</ele>
        <time>2022-11-17T10:03:31Z</time>
      </trkpt>
      <trkpt lat="44.68014" lon="5.15162">
        <ele>404</ele>
        <time>2022-11-17T10:03:31Z</time>
      </trkpt>
      <trkpt lat="44.67991" lon="5.15172">
        <ele>408</ele>
        <time>2022-11-17T10:03:31Z</time>
      </trkpt>
      <trkpt lat="44.67943" lon="5.15174">
        <ele>411</ele>
        <time>2022-11-17T10:03:31Z</time>
      </trkpt>
      <trkpt lat="44.67895" lon="5.15177">
        <ele>413</ele>
        <time>2022-11-17T10:03:31Z</time>
      </trkpt>
      <trkpt lat="44.67874" lon="5.15188">
        <ele>414</ele>
        <time>2022-11-17T10:03:31Z</time>
      </trkpt>
      <trkpt lat="44.67852" lon="5.15209">
        <ele>414</ele>
        <time>2022-11-17T10:03:31Z</time>
      </trkpt>
      <trkpt lat="44.67829" lon="5.15216">
        <ele>413</ele>
        <time>2022-11-17T10:03:31Z</time>
      </trkpt>
      <trkpt lat="44.67838" lon="5.15275">
        <ele>415</ele>
        <time>2022-11-17T10:03:31Z</time>
      </trkpt>
      <trkpt lat="44.67926" lon="5.15318">
        <ele>418</ele>
        <time>2022-11-17T10:03:31Z</time>
      </trkpt>
      <trkpt lat="44.6795" lon="5.15317">
        <ele>419</ele>
        <time>2022-11-17T10:03:32Z</time>
      </trkpt>
      <trkpt lat="44.67975" lon="5.15327">
        <ele>419</ele>
        <time>2022-11-17T10:03:32Z</time>
      </trkpt>
      <trkpt lat="44.6798" lon="5.15358">
        <ele>416</ele>
        <time>2022-11-17T10:03:32Z</time>
      </trkpt>
      <trkpt lat="44.67969" lon="5.15427">
        <ele>415</ele>
        <time>2022-11-17T10:03:32Z</time>
      </trkpt>
      <trkpt lat="44.67986" lon="5.15446">
        <ele>416</ele>
        <time>2022-11-17T10:03:32Z</time>
      </trkpt>
      <trkpt lat="44.68008" lon="5.15462">
        <ele>417</ele>
        <time>2022-11-17T10:03:32Z</time>
      </trkpt>
      <trkpt lat="44.68039" lon="5.1551">
        <ele>418</ele>
        <time>2022-11-17T10:03:32Z</time>
      </trkpt>
      <trkpt lat="44.68074" lon="5.15592">
        <ele>421</ele>
        <time>2022-11-17T10:03:32Z</time>
      </trkpt>
      <trkpt lat="44.68086" lon="5.15619">
        <ele>424</ele>
        <time>2022-11-17T10:03:32Z</time>
      </trkpt>
      <trkpt lat="44.6808" lon="5.15651">
        <ele>428</ele>
        <time>2022-11-17T10:03:32Z</time>
      </trkpt>
      <trkpt lat="44.68059" lon="5.15666">
        <ele>434</ele>
        <time>2022-11-17T10:03:32Z</time>
      </trkpt>
      <trkpt lat="44.68038" lon="5.15684">
        <ele>436</ele>
        <time>2022-11-17T10:03:32Z</time>
      </trkpt>
      <trkpt lat="44.68016" lon="5.15697">
        <ele>440</ele>
        <time>2022-11-17T10:03:32Z</time>
      </trkpt>
      <trkpt lat="44.67953" lon="5.1573">
        <ele>443</ele>
        <time>2022-11-17T10:03:32Z</time>
      </trkpt>
      <trkpt lat="44.67864" lon="5.15775">
        <ele>449</ele>
        <time>2022-11-17T10:03:32Z</time>
      </trkpt>
      <trkpt lat="44.67838" lon="5.15777">
        <ele>447</ele>
        <time>2022-11-17T10:03:32Z</time>
      </trkpt>
      <trkpt lat="44.6781" lon="5.15777">
        <ele>443</ele>
        <time>2022-11-17T10:03:32Z</time>
      </trkpt>
      <trkpt lat="44.67789" lon="5.15792">
        <ele>442</ele>
        <time>2022-11-17T10:03:32Z</time>
      </trkpt>
      <trkpt lat="44.67767" lon="5.1582">
        <ele>441</ele>
        <time>2022-11-17T10:03:32Z</time>
      </trkpt>
      <trkpt lat="44.67757" lon="5.15856">
        <ele>440</ele>
        <time>2022-11-17T10:03:32Z</time>
      </trkpt>
      <trkpt lat="44.67753" lon="5.15922">
        <ele>441</ele>
        <time>2022-11-17T10:03:32Z</time>
      </trkpt>
      <trkpt lat="44.67742" lon="5.15953">
        <ele>442</ele>
        <time>2022-11-17T10:03:32Z</time>
      </trkpt>
      <trkpt lat="44.67726" lon="5.15976">
        <ele>442</ele>
        <time>2022-11-17T10:03:32Z</time>
      </trkpt>
      <trkpt lat="44.67713" lon="5.16004">
        <ele>439</ele>
        <time>2022-11-17T10:03:32Z</time>
      </trkpt>
      <trkpt lat="44.67702" lon="5.16039">
        <ele>437</ele>
        <time>2022-11-17T10:03:32Z</time>
      </trkpt>
      <trkpt lat="44.67697" lon="5.16077">
        <ele>435</ele>
        <time>2022-11-17T10:03:32Z</time>
      </trkpt>
      <trkpt lat="44.67712" lon="5.16106">
        <ele>436</ele>
        <time>2022-11-17T10:03:32Z</time>
      </trkpt>
      <trkpt lat="44.67733" lon="5.16124">
        <ele>438</ele>
        <time>2022-11-17T10:03:32Z</time>
      </trkpt>
      <trkpt lat="44.67756" lon="5.16136">
        <ele>440</ele>
        <time>2022-11-17T10:03:32Z</time>
      </trkpt>
      <trkpt lat="44.67777" lon="5.16153">
        <ele>442</ele>
        <time>2022-11-17T10:03:32Z</time>
      </trkpt>
      <trkpt lat="44.67797" lon="5.16166">
        <ele>444</ele>
        <time>2022-11-17T10:03:32Z</time>
      </trkpt>
      <trkpt lat="44.67819" lon="5.16175">
        <ele>446</ele>
        <time>2022-11-17T10:03:32Z</time>
      </trkpt>
      <trkpt lat="44.67835" lon="5.162">
        <ele>450</ele>
        <time>2022-11-17T10:03:32Z</time>
      </trkpt>
      <trkpt lat="44.67835" lon="5.16236">
        <ele>452</ele>
        <time>2022-11-17T10:03:32Z</time>
      </trkpt>
      <trkpt lat="44.67827" lon="5.16268">
        <ele>454</ele>
        <time>2022-11-17T10:03:32Z</time>
      </trkpt>
      <trkpt lat="44.67813" lon="5.16296">
        <ele>454</ele>
        <time>2022-11-17T10:03:32Z</time>
      </trkpt>
      <trkpt lat="44.67833" lon="5.16312">
        <ele>456</ele>
        <time>2022-11-17T10:03:32Z</time>
      </trkpt>
      <trkpt lat="44.67856" lon="5.16321">
        <ele>458</ele>
        <time>2022-11-17T10:03:32Z</time>
      </trkpt>
      <trkpt lat="44.67841" lon="5.16345">
        <ele>463</ele>
        <time>2022-11-17T10:03:32Z</time>
      </trkpt>
      <trkpt lat="44.6782" lon="5.1636">
        <ele>466</ele>
        <time>2022-11-17T10:03:32Z</time>
      </trkpt>
      <trkpt lat="44.67801" lon="5.16382">
        <ele>468</ele>
        <time>2022-11-17T10:03:32Z</time>
      </trkpt>
      <trkpt lat="44.6771" lon="5.1642">
        <ele>472</ele>
        <time>2022-11-17T10:03:32Z</time>
      </trkpt>
      <trkpt lat="44.67693" lon="5.16442">
        <ele>472</ele>
        <time>2022-11-17T10:03:32Z</time>
      </trkpt>
      <trkpt lat="44.67681" lon="5.16474">
        <ele>471</ele>
        <time>2022-11-17T10:03:32Z</time>
      </trkpt>
      <trkpt lat="44.67661" lon="5.16494">
        <ele>472</ele>
        <time>2022-11-17T10:03:32Z</time>
      </trkpt>
      <trkpt lat="44.67592" lon="5.16477">
        <ele>472</ele>
        <time>2022-11-17T10:03:32Z</time>
      </trkpt>
      <trkpt lat="44.67545" lon="5.16507">
        <ele>469</ele>
        <time>2022-11-17T10:03:32Z</time>
      </trkpt>
      <trkpt lat="44.67522" lon="5.16505">
        <ele>468</ele>
        <time>2022-11-17T10:03:32Z</time>
      </trkpt>
      <trkpt lat="44.67494" lon="5.1651">
        <ele>468</ele>
        <time>2022-11-17T10:03:32Z</time>
      </trkpt>
      <trkpt lat="44.6743" lon="5.16562">
        <ele>469</ele>
        <time>2022-11-17T10:03:32Z</time>
      </trkpt>
      <trkpt lat="44.67409" lon="5.16577">
        <ele>472</ele>
        <time>2022-11-17T10:03:32Z</time>
      </trkpt>
      <trkpt lat="44.67385" lon="5.16578">
        <ele>473</ele>
        <time>2022-11-17T10:03:32Z</time>
      </trkpt>
      <trkpt lat="44.67363" lon="5.16561">
        <ele>474</ele>
        <time>2022-11-17T10:03:32Z</time>
      </trkpt>
      <trkpt lat="44.67341" lon="5.16574">
        <ele>474</ele>
        <time>2022-11-17T10:03:32Z</time>
      </trkpt>
      <trkpt lat="44.6732" lon="5.16639">
        <ele>469</ele>
        <time>2022-11-17T10:03:32Z</time>
      </trkpt>
      <trkpt lat="44.67324" lon="5.16702">
        <ele>466</ele>
        <time>2022-11-17T10:03:32Z</time>
      </trkpt>
      <trkpt lat="44.67374" lon="5.16716">
        <ele>466</ele>
        <time>2022-11-17T10:03:32Z</time>
      </trkpt>
      <trkpt lat="44.67397" lon="5.16727">
        <ele>464</ele>
        <time>2022-11-17T10:03:32Z</time>
      </trkpt>
      <trkpt lat="44.67423" lon="5.16741">
        <ele>461</ele>
        <time>2022-11-17T10:03:32Z</time>
      </trkpt>
      <trkpt lat="44.67445" lon="5.16753">
        <ele>458</ele>
        <time>2022-11-17T10:03:32Z</time>
      </trkpt>
      <trkpt lat="44.67463" lon="5.16775">
        <ele>456</ele>
        <time>2022-11-17T10:03:32Z</time>
      </trkpt>
      <trkpt lat="44.67452" lon="5.16803">
        <ele>455</ele>
        <time>2022-11-17T10:03:32Z</time>
      </trkpt>
      <trkpt lat="44.67437" lon="5.16834">
        <ele>453</ele>
        <time>2022-11-17T10:03:32Z</time>
      </trkpt>
      <trkpt lat="44.67417" lon="5.16848">
        <ele>453</ele>
        <time>2022-11-17T10:03:32Z</time>
      </trkpt>
      <trkpt lat="44.67393" lon="5.16863">
        <ele>451</ele>
        <time>2022-11-17T10:03:32Z</time>
      </trkpt>
      <trkpt lat="44.67359" lon="5.16911">
        <ele>448</ele>
        <time>2022-11-17T10:03:32Z</time>
      </trkpt>
      <trkpt lat="44.67351" lon="5.16941">
        <ele>447</ele>
        <time>2022-11-17T10:03:32Z</time>
      </trkpt>
      <trkpt lat="44.67403" lon="5.16949">
        <ele>448</ele>
        <time>2022-11-17T10:03:32Z</time>
      </trkpt>
      <trkpt lat="44.67427" lon="5.1696">
        <ele>447</ele>
        <time>2022-11-17T10:03:32Z</time>
      </trkpt>
      <trkpt lat="44.67456" lon="5.16966">
        <ele>445</ele>
        <time>2022-11-17T10:03:32Z</time>
      </trkpt>
      <trkpt lat="44.67504" lon="5.16981">
        <ele>443</ele>
        <time>2022-11-17T10:03:32Z</time>
      </trkpt>
      <trkpt lat="44.67553" lon="5.1698">
        <ele>441</ele>
        <time>2022-11-17T10:03:32Z</time>
      </trkpt>
      <trkpt lat="44.67601" lon="5.1696">
        <ele>439</ele>
        <time>2022-11-17T10:03:32Z</time>
      </trkpt>
      <trkpt lat="44.67624" lon="5.16963">
        <ele>443</ele>
        <time>2022-11-17T10:03:32Z</time>
      </trkpt>
      <trkpt lat="44.6764" lon="5.16989">
        <ele>444</ele>
        <time>2022-11-17T10:03:32Z</time>
      </trkpt>
      <trkpt lat="44.67654" lon="5.17016">
        <ele>446</ele>
        <time>2022-11-17T10:03:32Z</time>
      </trkpt>
      <trkpt lat="44.67665" lon="5.17046">
        <ele>448</ele>
        <time>2022-11-17T10:03:32Z</time>
      </trkpt>
      <trkpt lat="44.67685" lon="5.17106">
        <ele>450</ele>
        <time>2022-11-17T10:03:32Z</time>
      </trkpt>
      <trkpt lat="44.67701" lon="5.17166">
        <ele>452</ele>
        <time>2022-11-17T10:03:32Z</time>
      </trkpt>
      <trkpt lat="44.67714" lon="5.17195">
        <ele>454</ele>
        <time>2022-11-17T10:03:32Z</time>
      </trkpt>
      <trkpt lat="44.67709" lon="5.17227">
        <ele>459</ele>
        <time>2022-11-17T10:03:32Z</time>
      </trkpt>
      <trkpt lat="44.67687" lon="5.17231">
        <ele>462</ele>
        <time>2022-11-17T10:03:32Z</time>
      </trkpt>
      <trkpt lat="44.6764" lon="5.17246">
        <ele>465</ele>
        <time>2022-11-17T10:03:32Z</time>
      </trkpt>
      <trkpt lat="44.67619" lon="5.17264">
        <ele>464</ele>
        <time>2022-11-17T10:03:32Z</time>
      </trkpt>
      <trkpt lat="44.67604" lon="5.17289">
        <ele>465</ele>
        <time>2022-11-17T10:03:32Z</time>
      </trkpt>
      <trkpt lat="44.67584" lon="5.17304">
        <ele>467</ele>
        <time>2022-11-17T10:03:32Z</time>
      </trkpt>
      <trkpt lat="44.67552" lon="5.17352">
        <ele>467</ele>
        <time>2022-11-17T10:03:32Z</time>
      </trkpt>
      <trkpt lat="44.67495" lon="5.17413">
        <ele>470</ele>
        <time>2022-11-17T10:03:32Z</time>
      </trkpt>
      <trkpt lat="44.67448" lon="5.17486">
        <ele>468</ele>
        <time>2022-11-17T10:03:32Z</time>
      </trkpt>
      <trkpt lat="44.67424" lon="5.17499">
        <ele>470</ele>
        <time>2022-11-17T10:03:32Z</time>
      </trkpt>
      <trkpt lat="44.67407" lon="5.17521">
        <ele>469</ele>
        <time>2022-11-17T10:03:32Z</time>
      </trkpt>
      <trkpt lat="44.67428" lon="5.17537">
        <ele>470</ele>
        <time>2022-11-17T10:03:32Z</time>
      </trkpt>
      <trkpt lat="44.67428" lon="5.17569">
        <ele>471</ele>
        <time>2022-11-17T10:03:32Z</time>
      </trkpt>
      <trkpt lat="44.67424" lon="5.17601">
        <ele>473</ele>
        <time>2022-11-17T10:03:32Z</time>
      </trkpt>
      <trkpt lat="44.67407" lon="5.17627">
        <ele>476</ele>
        <time>2022-11-17T10:03:32Z</time>
      </trkpt>
      <trkpt lat="44.67399" lon="5.17656">
        <ele>480</ele>
        <time>2022-11-17T10:03:32Z</time>
      </trkpt>
      <trkpt lat="44.67387" lon="5.17686">
        <ele>484</ele>
        <time>2022-11-17T10:03:32Z</time>
      </trkpt>
      <trkpt lat="44.67288" lon="5.1783">
        <ele>488</ele>
        <time>2022-11-17T10:03:32Z</time>
      </trkpt>
      <trkpt lat="44.67266" lon="5.17844">
        <ele>488</ele>
        <time>2022-11-17T10:03:32Z</time>
      </trkpt>
      <trkpt lat="44.67249" lon="5.1787">
        <ele>488</ele>
        <time>2022-11-17T10:03:32Z</time>
      </trkpt>
      <trkpt lat="44.67236" lon="5.17903">
        <ele>487</ele>
        <time>2022-11-17T10:03:32Z</time>
      </trkpt>
      <trkpt lat="44.67215" lon="5.17926">
        <ele>486</ele>
        <time>2022-11-17T10:03:32Z</time>
      </trkpt>
      <trkpt lat="44.67192" lon="5.17936">
        <ele>486</ele>
        <time>2022-11-17T10:03:32Z</time>
      </trkpt>
      <trkpt lat="44.67202" lon="5.17965">
        <ele>485</ele>
        <time>2022-11-17T10:03:32Z</time>
      </trkpt>
      <trkpt lat="44.67193" lon="5.17995">
        <ele>485</ele>
        <time>2022-11-17T10:03:32Z</time>
      </trkpt>
      <trkpt lat="44.67175" lon="5.18017">
        <ele>485</ele>
        <time>2022-11-17T10:03:32Z</time>
      </trkpt>
      <trkpt lat="44.6717" lon="5.18053">
        <ele>485</ele>
        <time>2022-11-17T10:03:32Z</time>
      </trkpt>
      <trkpt lat="44.6718" lon="5.18122">
        <ele>481</ele>
        <time>2022-11-17T10:03:32Z</time>
      </trkpt>
      <trkpt lat="44.6717" lon="5.18155">
        <ele>482</ele>
        <time>2022-11-17T10:03:32Z</time>
      </trkpt>
      <trkpt lat="44.67188" lon="5.18174">
        <ele>484</ele>
        <time>2022-11-17T10:03:32Z</time>
      </trkpt>
      <trkpt lat="44.67234" lon="5.18158">
        <ele>486</ele>
        <time>2022-11-17T10:03:32Z</time>
      </trkpt>
      <trkpt lat="44.67258" lon="5.1816">
        <ele>488</ele>
        <time>2022-11-17T10:03:32Z</time>
      </trkpt>
      <trkpt lat="44.67281" lon="5.18173">
        <ele>490</ele>
        <time>2022-11-17T10:03:32Z</time>
      </trkpt>
      <trkpt lat="44.67303" lon="5.18186">
        <ele>493</ele>
        <time>2022-11-17T10:03:32Z</time>
      </trkpt>
      <trkpt lat="44.67322" lon="5.18203">
        <ele>496</ele>
        <time>2022-11-17T10:03:32Z</time>
      </trkpt>
      <trkpt lat="44.67344" lon="5.18215">
        <ele>500</ele>
        <time>2022-11-17T10:03:32Z</time>
      </trkpt>
      <trkpt lat="44.67366" lon="5.18211">
        <ele>500</ele>
        <time>2022-11-17T10:03:32Z</time>
      </trkpt>
      <trkpt lat="44.67388" lon="5.18194">
        <ele>503</ele>
        <time>2022-11-17T10:03:32Z</time>
      </trkpt>
      <trkpt lat="44.67412" lon="5.18185">
        <ele>506</ele>
        <time>2022-11-17T10:03:32Z</time>
      </trkpt>
      <trkpt lat="44.67426" lon="5.1821">
        <ele>509</ele>
        <time>2022-11-17T10:03:32Z</time>
      </trkpt>
      <trkpt lat="44.67405" lon="5.18227">
        <ele>515</ele>
        <time>2022-11-17T10:03:32Z</time>
      </trkpt>
      <trkpt lat="44.67384" lon="5.18243">
        <ele>518</ele>
        <time>2022-11-17T10:03:32Z</time>
      </trkpt>
      <trkpt lat="44.67362" lon="5.18259">
        <ele>523</ele>
        <time>2022-11-17T10:03:32Z</time>
      </trkpt>
      <trkpt lat="44.67341" lon="5.18276">
        <ele>528</ele>
        <time>2022-11-17T10:03:32Z</time>
      </trkpt>
      <trkpt lat="44.67321" lon="5.18293">
        <ele>530</ele>
        <time>2022-11-17T10:03:32Z</time>
      </trkpt>
      <trkpt lat="44.67303" lon="5.18312">
        <ele>532</ele>
        <time>2022-11-17T10:03:32Z</time>
      </trkpt>
      <trkpt lat="44.67286" lon="5.18337">
        <ele>534</ele>
        <time>2022-11-17T10:03:32Z</time>
      </trkpt>
      <trkpt lat="44.67273" lon="5.18364">
        <ele>538</ele>
        <time>2022-11-17T10:03:32Z</time>
      </trkpt>
      <trkpt lat="44.67263" lon="5.18394">
        <ele>542</ele>
        <time>2022-11-17T10:03:32Z</time>
      </trkpt>
      <trkpt lat="44.67264" lon="5.18462">
        <ele>543</ele>
        <time>2022-11-17T10:03:32Z</time>
      </trkpt>
      <trkpt lat="44.67262" lon="5.18494">
        <ele>545</ele>
        <time>2022-11-17T10:03:32Z</time>
      </trkpt>
      <trkpt lat="44.6726" lon="5.18527">
        <ele>547</ele>
        <time>2022-11-17T10:03:32Z</time>
      </trkpt>
      <trkpt lat="44.67259" lon="5.18559">
        <ele>549</ele>
        <time>2022-11-17T10:03:32Z</time>
      </trkpt>
      <trkpt lat="44.67264" lon="5.18592">
        <ele>551</ele>
        <time>2022-11-17T10:03:32Z</time>
      </trkpt>
      <trkpt lat="44.67271" lon="5.18623">
        <ele>554</ele>
        <time>2022-11-17T10:03:32Z</time>
      </trkpt>
      <trkpt lat="44.67281" lon="5.18689">
        <ele>558</ele>
        <time>2022-11-17T10:03:32Z</time>
      </trkpt>
      <trkpt lat="44.67292" lon="5.1872">
        <ele>556</ele>
        <time>2022-11-17T10:03:32Z</time>
      </trkpt>
      <trkpt lat="44.67315" lon="5.18736">
        <ele>555</ele>
        <time>2022-11-17T10:03:32Z</time>
      </trkpt>
      <trkpt lat="44.67341" lon="5.18744">
        <ele>554</ele>
        <time>2022-11-17T10:03:32Z</time>
      </trkpt>
      <trkpt lat="44.67394" lon="5.18756">
        <ele>551</ele>
        <time>2022-11-17T10:03:32Z</time>
      </trkpt>
      <trkpt lat="44.67423" lon="5.18766">
        <ele>548</ele>
        <time>2022-11-17T10:03:32Z</time>
      </trkpt>
      <trkpt lat="44.67467" lon="5.18782">
        <ele>545</ele>
        <time>2022-11-17T10:03:32Z</time>
      </trkpt>
      <trkpt lat="44.67516" lon="5.18766">
        <ele>542</ele>
        <time>2022-11-17T10:03:32Z</time>
      </trkpt>
      <trkpt lat="44.67544" lon="5.18764">
        <ele>539</ele>
        <time>2022-11-17T10:03:32Z</time>
      </trkpt>
      <trkpt lat="44.67603" lon="5.18764">
        <ele>535</ele>
        <time>2022-11-17T10:03:32Z</time>
      </trkpt>
      <trkpt lat="44.67636" lon="5.18765">
        <ele>533</ele>
        <time>2022-11-17T10:03:32Z</time>
      </trkpt>
      <trkpt lat="44.67669" lon="5.18761">
        <ele>530</ele>
        <time>2022-11-17T10:03:32Z</time>
      </trkpt>
      <trkpt lat="44.67701" lon="5.18758">
        <ele>527</ele>
        <time>2022-11-17T10:03:32Z</time>
      </trkpt>
      <trkpt lat="44.67731" lon="5.18761">
        <ele>524</ele>
        <time>2022-11-17T10:03:32Z</time>
      </trkpt>
      <trkpt lat="44.67758" lon="5.18781">
        <ele>523</ele>
        <time>2022-11-17T10:03:32Z</time>
      </trkpt>
      <trkpt lat="44.67786" lon="5.18793">
        <ele>521</ele>
        <time>2022-11-17T10:03:32Z</time>
      </trkpt>
      <trkpt lat="44.67815" lon="5.18785">
        <ele>518</ele>
        <time>2022-11-17T10:03:32Z</time>
      </trkpt>
      <trkpt lat="44.67842" lon="5.18772">
        <ele>514</ele>
        <time>2022-11-17T10:03:32Z</time>
      </trkpt>
      <trkpt lat="44.67865" lon="5.18782">
        <ele>512</ele>
        <time>2022-11-17T10:03:32Z</time>
      </trkpt>
      <trkpt lat="44.67899" lon="5.18832">
        <ele>509</ele>
        <time>2022-11-17T10:03:32Z</time>
      </trkpt>
      <trkpt lat="44.67884" lon="5.18806">
        <ele>509</ele>
        <time>2022-11-17T10:03:32Z</time>
      </trkpt>
      <trkpt lat="44.67924" lon="5.18837">
        <ele>511</ele>
        <time>2022-11-17T10:03:32Z</time>
      </trkpt>
      <trkpt lat="44.67966" lon="5.18868">
        <ele>513</ele>
        <time>2022-11-17T10:03:32Z</time>
      </trkpt>
      <trkpt lat="44.67991" lon="5.18875">
        <ele>513</ele>
        <time>2022-11-17T10:03:32Z</time>
      </trkpt>
      <trkpt lat="44.68016" lon="5.18872">
        <ele>512</ele>
        <time>2022-11-17T10:03:32Z</time>
      </trkpt>
      <trkpt lat="44.68039" lon="5.18873">
        <ele>510</ele>
        <time>2022-11-17T10:03:32Z</time>
      </trkpt>
      <trkpt lat="44.68064" lon="5.18873">
        <ele>508</ele>
        <time>2022-11-17T10:03:32Z</time>
      </trkpt>
      <trkpt lat="44.68156" lon="5.18911">
        <ele>505</ele>
        <time>2022-11-17T10:03:32Z</time>
      </trkpt>
      <trkpt lat="44.68172" lon="5.18885">
        <ele>503</ele>
        <time>2022-11-17T10:03:32Z</time>
      </trkpt>
      <trkpt lat="44.68197" lon="5.18887">
        <ele>500</ele>
        <time>2022-11-17T10:03:32Z</time>
      </trkpt>
      <trkpt lat="44.6822" lon="5.18891">
        <ele>497</ele>
        <time>2022-11-17T10:03:32Z</time>
      </trkpt>
      <trkpt lat="44.68289" lon="5.18905">
        <ele>493</ele>
        <time>2022-11-17T10:03:32Z</time>
      </trkpt>
      <trkpt lat="44.68308" lon="5.18923">
        <ele>491</ele>
        <time>2022-11-17T10:03:32Z</time>
      </trkpt>
      <trkpt lat="44.68325" lon="5.18949">
        <ele>490</ele>
        <time>2022-11-17T10:03:32Z</time>
      </trkpt>
      <trkpt lat="44.68349" lon="5.18965">
        <ele>491</ele>
        <time>2022-11-17T10:03:32Z</time>
      </trkpt>
      <trkpt lat="44.68374" lon="5.18972">
        <ele>491</ele>
        <time>2022-11-17T10:03:32Z</time>
      </trkpt>
      <trkpt lat="44.68391" lon="5.18996">
        <ele>489</ele>
        <time>2022-11-17T10:03:32Z</time>
      </trkpt>
      <trkpt lat="44.68399" lon="5.19058">
        <ele>486</ele>
        <time>2022-11-17T10:03:32Z</time>
      </trkpt>
      <trkpt lat="44.68414" lon="5.19084">
        <ele>483</ele>
        <time>2022-11-17T10:03:32Z</time>
      </trkpt>
      <trkpt lat="44.68432" lon="5.19105">
        <ele>479</ele>
        <time>2022-11-17T10:03:32Z</time>
      </trkpt>
      <trkpt lat="44.68451" lon="5.19125">
        <ele>473</ele>
        <time>2022-11-17T10:03:32Z</time>
      </trkpt>
      <trkpt lat="44.68474" lon="5.19131">
        <ele>468</ele>
        <time>2022-11-17T10:03:32Z</time>
      </trkpt>
      <trkpt lat="44.68494" lon="5.19115">
        <ele>462</ele>
        <time>2022-11-17T10:03:32Z</time>
      </trkpt>
      <trkpt lat="44.68513" lon="5.19098">
        <ele>456</ele>
        <time>2022-11-17T10:03:32Z</time>
      </trkpt>
      <trkpt lat="44.68538" lon="5.19094">
        <ele>451</ele>
        <time>2022-11-17T10:03:32Z</time>
      </trkpt>
      <trkpt lat="44.6856" lon="5.1909">
        <ele>453</ele>
        <time>2022-11-17T10:03:32Z</time>
      </trkpt>
      <trkpt lat="44.68581" lon="5.19106">
        <ele>453</ele>
        <time>2022-11-17T10:03:32Z</time>
      </trkpt>
      <trkpt lat="44.68595" lon="5.19134">
        <ele>453</ele>
        <time>2022-11-17T10:03:32Z</time>
      </trkpt>
      <trkpt lat="44.68606" lon="5.19162">
        <ele>451</ele>
        <time>2022-11-17T10:03:32Z</time>
      </trkpt>
      <trkpt lat="44.68623" lon="5.19186">
        <ele>448</ele>
        <time>2022-11-17T10:03:32Z</time>
      </trkpt>
      <trkpt lat="44.6864" lon="5.1921">
        <ele>445</ele>
        <time>2022-11-17T10:03:32Z</time>
      </trkpt>
      <trkpt lat="44.68663" lon="5.19226">
        <ele>440</ele>
        <time>2022-11-17T10:03:32Z</time>
      </trkpt>
      <trkpt lat="44.68681" lon="5.19246">
        <ele>436</ele>
        <time>2022-11-17T10:03:32Z</time>
      </trkpt>
      <trkpt lat="44.68705" lon="5.19251">
        <ele>434</ele>
        <time>2022-11-17T10:03:32Z</time>
      </trkpt>
      <trkpt lat="44.68729" lon="5.1925">
        <ele>431</ele>
        <time>2022-11-17T10:03:32Z</time>
      </trkpt>
      <trkpt lat="44.68749" lon="5.19272">
        <ele>426</ele>
        <time>2022-11-17T10:03:32Z</time>
      </trkpt>
      <trkpt lat="44.68769" lon="5.19294">
        <ele>423</ele>
        <time>2022-11-17T10:03:32Z</time>
      </trkpt>
      <trkpt lat="44.68789" lon="5.19314">
        <ele>420</ele>
        <time>2022-11-17T10:03:32Z</time>
      </trkpt>
      <trkpt lat="44.68811" lon="5.19327">
        <ele>418</ele>
        <time>2022-11-17T10:03:32Z</time>
      </trkpt>
      <trkpt lat="44.68834" lon="5.19338">
        <ele>414</ele>
        <time>2022-11-17T10:03:32Z</time>
      </trkpt>
      <trkpt lat="44.68857" lon="5.19351">
        <ele>412</ele>
        <time>2022-11-17T10:03:32Z</time>
      </trkpt>
      <trkpt lat="44.6888" lon="5.19363">
        <ele>410</ele>
        <time>2022-11-17T10:03:32Z</time>
      </trkpt>
      <trkpt lat="44.68901" lon="5.19379">
        <ele>406</ele>
        <time>2022-11-17T10:03:32Z</time>
      </trkpt>
      <trkpt lat="44.68919" lon="5.194">
        <ele>401</ele>
        <time>2022-11-17T10:03:32Z</time>
      </trkpt>
      <trkpt lat="44.68936" lon="5.19424">
        <ele>398</ele>
        <time>2022-11-17T10:03:32Z</time>
      </trkpt>
      <trkpt lat="44.68946" lon="5.19453">
        <ele>395</ele>
        <time>2022-11-17T10:03:32Z</time>
      </trkpt>
      <trkpt lat="44.68961" lon="5.19478">
        <ele>392</ele>
        <time>2022-11-17T10:03:32Z</time>
      </trkpt>
      <trkpt lat="44.68981" lon="5.195">
        <ele>390</ele>
        <time>2022-11-17T10:03:32Z</time>
      </trkpt>
      <trkpt lat="44.69004" lon="5.1951">
        <ele>389</ele>
        <time>2022-11-17T10:03:32Z</time>
      </trkpt>
      <trkpt lat="44.68996" lon="5.1954">
        <ele>383</ele>
        <time>2022-11-17T10:03:32Z</time>
      </trkpt>
      <trkpt lat="44.69014" lon="5.1956">
        <ele>379</ele>
        <time>2022-11-17T10:03:32Z</time>
      </trkpt>
      <trkpt lat="44.69034" lon="5.19576">
        <ele>373</ele>
        <time>2022-11-17T10:03:32Z</time>
      </trkpt>
      <trkpt lat="44.69104" lon="5.19607">
        <ele>362</ele>
        <time>2022-11-17T10:03:32Z</time>
      </trkpt>
      <trkpt lat="44.69146" lon="5.19645">
        <ele>359</ele>
        <time>2022-11-17T10:03:32Z</time>
      </trkpt>
      <trkpt lat="44.6916" lon="5.19673">
        <ele>357</ele>
        <time>2022-11-17T10:03:32Z</time>
      </trkpt>
      <trkpt lat="44.69164" lon="5.19705">
        <ele>354</ele>
        <time>2022-11-17T10:03:32Z</time>
      </trkpt>
      <trkpt lat="44.69171" lon="5.19671">
        <ele>353</ele>
        <time>2022-11-17T10:03:32Z</time>
      </trkpt>
      <trkpt lat="44.69181" lon="5.19642">
        <ele>351</ele>
        <time>2022-11-17T10:03:32Z</time>
      </trkpt>
      <trkpt lat="44.69235" lon="5.19626">
        <ele>347</ele>
        <time>2022-11-17T10:03:32Z</time>
      </trkpt>
      <trkpt lat="44.69405" lon="5.19626">
        <ele>343</ele>
        <time>2022-11-17T10:03:32Z</time>
      </trkpt>
      <trkpt lat="44.69424" lon="5.1965">
        <ele>336</ele>
        <time>2022-11-17T10:03:32Z</time>
      </trkpt>
      <trkpt lat="44.6944" lon="5.1968">
        <ele>331</ele>
        <time>2022-11-17T10:03:32Z</time>
      </trkpt>
      <trkpt lat="44.69454" lon="5.19714">
        <ele>329</ele>
        <time>2022-11-17T10:03:32Z</time>
      </trkpt>
      <trkpt lat="44.69479" lon="5.19884">
        <ele>329</ele>
        <time>2022-11-17T10:03:32Z</time>
      </trkpt>
      <trkpt lat="44.69469" lon="5.19912">
        <ele>330</ele>
        <time>2022-11-17T10:03:32Z</time>
      </trkpt>
      <trkpt lat="44.69466" lon="5.19948">
        <ele>331</ele>
        <time>2022-11-17T10:03:32Z</time>
      </trkpt>
      <trkpt lat="44.69471" lon="5.19982">
        <ele>332</ele>
        <time>2022-11-17T10:03:32Z</time>
      </trkpt>
      <trkpt lat="44.695" lon="5.20032">
        <ele>333</ele>
        <time>2022-11-17T10:03:32Z</time>
      </trkpt>
      <trkpt lat="44.695" lon="5.20069">
        <ele>332</ele>
        <time>2022-11-17T10:03:32Z</time>
      </trkpt>
      <trkpt lat="44.69488" lon="5.20097">
        <ele>331</ele>
        <time>2022-11-17T10:03:32Z</time>
      </trkpt>
      <trkpt lat="44.69509" lon="5.20084">
        <ele>328</ele>
        <time>2022-11-17T10:03:32Z</time>
      </trkpt>
      <trkpt lat="44.69512" lon="5.20048">
        <ele>327</ele>
        <time>2022-11-17T10:03:32Z</time>
      </trkpt>
      <trkpt lat="44.69503" lon="5.20019">
        <ele>327</ele>
        <time>2022-11-17T10:03:32Z</time>
      </trkpt>
      <trkpt lat="44.695" lon="5.19984">
        <ele>327</ele>
        <time>2022-11-17T10:03:32Z</time>
      </trkpt>
      <trkpt lat="44.6951" lon="5.19908">
        <ele>328</ele>
        <time>2022-11-17T10:03:32Z</time>
      </trkpt>
      <trkpt lat="44.69507" lon="5.19837">
        <ele>328</ele>
        <time>2022-11-17T10:03:32Z</time>
      </trkpt>
      <trkpt lat="44.69506" lon="5.19761">
        <ele>325</ele>
        <time>2022-11-17T10:03:32Z</time>
      </trkpt>
      <trkpt lat="44.69513" lon="5.19731">
        <ele>322</ele>
        <time>2022-11-17T10:03:32Z</time>
      </trkpt>
      <trkpt lat="44.69537" lon="5.1972">
        <ele>320</ele>
        <time>2022-11-17T10:03:32Z</time>
      </trkpt>
      <trkpt lat="44.69613" lon="5.19724">
        <ele>318</ele>
        <time>2022-11-17T10:03:32Z</time>
      </trkpt>
      <trkpt lat="44.69636" lon="5.19717">
        <ele>321</ele>
        <time>2022-11-17T10:03:32Z</time>
      </trkpt>
      <trkpt lat="44.69659" lon="5.1972">
        <ele>321</ele>
        <time>2022-11-17T10:03:32Z</time>
      </trkpt>
      <trkpt lat="44.69659" lon="5.19785">
        <ele>319</ele>
        <time>2022-11-17T10:03:32Z</time>
      </trkpt>
      <trkpt lat="44.69668" lon="5.19817">
        <ele>320</ele>
        <time>2022-11-17T10:03:32Z</time>
      </trkpt>
      <trkpt lat="44.69674" lon="5.19883">
        <ele>320</ele>
        <time>2022-11-17T10:03:32Z</time>
      </trkpt>
      <trkpt lat="44.69686" lon="5.19913">
        <ele>322</ele>
        <time>2022-11-17T10:03:32Z</time>
      </trkpt>
      <trkpt lat="44.69689" lon="5.19949">
        <ele>325</ele>
        <time>2022-11-17T10:03:32Z</time>
      </trkpt>
      <trkpt lat="44.69697" lon="5.19979">
        <ele>326</ele>
        <time>2022-11-17T10:03:32Z</time>
      </trkpt>
      <trkpt lat="44.69715" lon="5.19998">
        <ele>327</ele>
        <time>2022-11-17T10:03:32Z</time>
        <extensions>
          <visugpx:TrkExtension xmlns:visugpx="https://www.visugpx.com/editgpx/">
            <visugpx:node>1</visugpx:node>
            </visugpx:TrkExtension>
        </extensions>
      </trkpt>
    </trkseg>
  </trk>
</gpx>